M I D A S
Marine Information and Data Acquisition System
Tripno 2205 of the Zeeleeuw from 2011-10-25 07:10:08 to 2011-10-25 15:10:04
Back to CruiseResearch ActivitiesStationsMapUnderway DataData graphs

EquipmentUnitsComment
TimeDGPSUTC
LatitudeDGPSDM.mWGS84
LongitudeDGPSDM.mWGS84
TemperatureSBE03/SBE38deg celciusITS90
ConductivitySBE21S/mITS90
SalinitySBE21 Practical Salinity Units
ChlorophylAChelsea fluorimeterg/lCalibrated in Aceton
Missing or incorrect values are displayed as -999
Sea surface data collected by the RV Zeeleeuw from 2011-10-25 06:49:53 to 2011-10-25 15:21:05
                                                                                    Next 1000 lines
Time Latitude Longitude Temperature Conductivity Salinity ChlorophylA
2011-10-25 06:50:04 51°13.637 2°56.018 18.4127 0.019681 0.10041 -3.020363
2011-10-25 06:50:09 51°13.637 2°56.019 18.4145 0.019681 0.10041 -3.020363
2011-10-25 06:50:14 51°13.637 2°56.019 18.4142 0.019681 0.100411 -3.020363
2011-10-25 06:50:19 51°13.637 2°56.019 18.4142 0.019681 0.100411 -3.020363
2011-10-25 06:50:24 51°13.637 2°56.019 18.4142 0.019681 0.100413 -3.020363
2011-10-25 06:50:29 51°13.637 2°56.019 18.4147 0.019681 0.100414 -3.020363
2011-10-25 06:50:34 51°13.637 2°56.019 18.414 0.019681 0.100415 -3.020363
2011-10-25 06:50:40 51°13.637 2°56.018 18.414 0.019681 0.100415 -3.020363
2011-10-25 06:50:44 51°13.637 2°56.018 18.4138 0.019681 0.100418 -3.020363
2011-10-25 06:50:49 51°13.637 2°56.018 18.4144 0.019681 0.100418 -3.020363
2011-10-25 06:50:54 51°13.637 2°56.019 18.4145 0.019681 0.100418 -3.020363
2011-10-25 06:50:59 51°13.636 2°56.019 18.4131 0.019681 0.10042 -3.020363
2011-10-25 06:51:04 51°13.636 2°56.018 18.4128 0.019681 0.100421 -3.020363
2011-10-25 06:51:09 51°13.636 2°56.018 18.4128 0.019681 0.100422 -3.020363
2011-10-25 06:51:14 51°13.636 2°56.018 18.4125 0.019681 0.100424 -3.020363
2011-10-25 06:51:18 51°13.636 2°56.018 18.4135 0.019681 0.100424 -3.020363
2011-10-25 06:51:24 51°13.636 2°56.018 18.4145 0.019681 0.100425 -3.020363
2011-10-25 06:51:29 51°13.636 2°56.018 18.4189 0.019681 0.100427 -3.020363
2011-10-25 06:51:33 51°13.636 2°56.018 18.4165 0.019681 0.100428 -3.020363
2011-10-25 06:51:38 51°13.636 2°56.018 18.4235 0.019681 0.100429 -3.020363
2011-10-25 06:51:42 51°13.636 2°56.018 18.4242 0.019681 0.100429 -3.020363
2011-10-25 06:51:49 51°13.636 2°56.018 18.425 0.019681 0.100429 -3.020363
2011-10-25 06:51:54 51°13.636 2°56.018 18.4244 0.019681 0.100432 -3.020363
2011-10-25 06:51:59 51°13.636 2°56.018 18.4229 0.019681 0.100432 -3.020363
2011-10-25 06:52:03 51°13.636 2°56.018 18.4215 0.019681 0.100435 -3.020363
2011-10-25 06:52:08 51°13.636 2°56.018 18.4221 0.019681 0.100435 -3.020363
2011-10-25 06:52:13 51°13.636 2°56.018 18.4235 0.019681 0.100437 -3.020363
2011-10-25 06:52:18 51°13.636 2°56.018 18.4229 0.019681 0.100437 -3.020363
2011-10-25 06:52:23 51°13.636 2°56.018 18.4248 0.019681 0.100438 -3.020363
2011-10-25 06:52:28 51°13.636 2°56.018 18.4261 0.019681 0.100439 -3.020363
2011-10-25 06:52:34 51°13.636 2°56.018 18.4262 0.019681 0.100441 -3.020363
2011-10-25 06:52:39 51°13.636 2°56.018 18.4269 0.019681 0.100442 -3.020363
2011-10-25 06:52:43 51°13.636 2°56.018 18.4271 0.019681 0.100444 -3.020363
2011-10-25 06:52:48 51°13.636 2°56.018 18.4267 0.019681 0.100444 -3.020363
2011-10-25 06:52:53 51°13.636 2°56.018 18.4267 0.019681 0.100445 -3.020363
2011-10-25 06:52:58 51°13.636 2°56.018 18.4251 0.019681 0.100445 -3.020363
2011-10-25 06:53:03 51°13.636 2°56.018 18.4234 0.019681 0.100448 -3.020363
2011-10-25 06:53:08 51°13.636 2°56.018 18.4218 0.019681 0.100449 -3.020363
2011-10-25 06:53:12 51°13.636 2°56.018 18.4208 0.019681 0.100449 -3.020363
2011-10-25 06:53:18 51°13.636 2°56.018 18.421 0.019681 0.100449 -3.020363
2011-10-25 06:53:24 51°13.636 2°56.019 18.4206 0.019681 0.100451 -3.020363
2011-10-25 06:53:28 51°13.636 2°56.019 18.4184 0.019681 0.100452 -3.020363
2011-10-25 06:53:34 51°13.636 2°56.019 18.4181 0.019681 0.100454 -3.020363
2011-10-25 06:53:39 51°13.636 2°56.019 18.4189 0.019681 0.100455 -3.020363
2011-10-25 06:53:44 51°13.636 2°56.019 18.4197 0.019681 0.100456 -3.020363
2011-10-25 06:53:49 51°13.636 2°56.019 18.4212 0.019681 0.100456 -3.020363
2011-10-25 06:53:54 51°13.636 2°56.018 18.4225 0.019681 0.100458 -3.020363
2011-10-25 06:54:00 51°13.636 2°56.018 18.4218 0.019681 0.100458 -3.020363
2011-10-25 06:54:04 51°13.636 2°56.018 18.421 0.019681 0.100461 -3.020363
2011-10-25 06:54:09 51°13.636 2°56.019 18.4198 0.019681 0.100462 -3.020363
2011-10-25 06:54:14 51°13.636 2°56.019 18.4177 0.019681 0.100462 -3.020363
2011-10-25 06:54:19 51°13.636 2°56.019 18.4135 0.019681 0.100462 -3.020363
2011-10-25 06:54:24 51°13.636 2°56.019 18.4127 0.019681 0.100463 -3.020363
2011-10-25 06:54:29 51°13.636 2°56.019 18.4111 0.019681 0.100465 -3.020363
2011-10-25 06:54:34 51°13.636 2°56.019 18.4127 0.019681 0.100466 -3.020363
2011-10-25 06:54:38 51°13.636 2°56.019 18.4174 0.019681 0.100468 -3.020363
2011-10-25 06:54:43 51°13.636 2°56.019 18.4218 0.019681 0.100469 -3.020363
2011-10-25 06:54:48 51°13.636 2°56.019 18.427 0.019681 0.100469 -3.020363
2011-10-25 06:54:53 51°13.636 2°56.019 18.4293 0.019578 0.099963 -3.020363
2011-10-25 06:54:58 51°13.636 2°56.019 18.4299 0.019681 0.100472 -3.020363
2011-10-25 06:55:04 51°13.636 2°56.019 18.4335 0.019578 0.099966 -3.020363
2011-10-25 06:55:08 51°13.636 2°56.019 18.4334 0.019578 0.099966 -3.020363
2011-10-25 06:55:13 51°13.636 2°56.019 18.431 0.019681 0.100475 -3.020363
2011-10-25 06:55:19 51°13.635 2°56.018 18.4307 0.019681 0.100475 -3.020363
2011-10-25 06:55:24 51°13.635 2°56.018 18.4291 0.019681 0.100476 -3.020363
2011-10-25 06:55:29 51°13.635 2°56.018 18.43 0.019578 0.09997 -3.020363
2011-10-25 06:55:35 51°13.635 2°56.018 18.4284 0.019578 0.099971 -3.020363
2011-10-25 06:55:38 51°13.635 2°56.018 18.4286 0.019578 0.099973 -3.020363
2011-10-25 06:55:44 51°13.635 2°56.019 18.4288 0.019578 0.099974 -3.020363
2011-10-25 06:55:49 51°13.635 2°56.019 18.4328 0.019578 0.099974 -3.020363
2011-10-25 06:55:54 51°13.635 2°56.019 18.433 0.019578 0.099976 -3.020363
2011-10-25 06:55:59 51°13.635 2°56.019 18.4353 0.019578 0.099977 -3.020363
2011-10-25 06:56:03 51°13.635 2°56.019 18.4348 0.019578 0.099977 -3.020363
2011-10-25 06:56:08 51°13.635 2°56.019 18.436 0.019578 0.099978 -3.020363
2011-10-25 06:56:13 51°13.635 2°56.019 18.4354 0.019578 0.09998 -3.020363
2011-10-25 06:56:18 51°13.635 2°56.019 18.4337 0.019578 0.09998 -3.020363
2011-10-25 06:56:23 51°13.635 2°56.019 18.433 0.019578 0.099981 -3.020363
2011-10-25 06:56:28 51°13.635 2°56.019 18.432 0.019578 0.099983 -3.020363
2011-10-25 06:56:33 51°13.635 2°56.019 18.4305 0.019578 0.099984 -3.020363
2011-10-25 06:56:38 51°13.635 2°56.019 18.4313 0.019578 0.099986 -3.020363
2011-10-25 06:56:43 51°13.634 2°56.019 18.435 0.019578 0.099987 -3.020363
2011-10-25 06:56:47 51°13.634 2°56.019 18.4345 0.019578 0.099987 -3.020363
2011-10-25 06:56:52 51°13.634 2°56.019 18.4355 0.019578 0.099988 -3.020363
2011-10-25 06:56:57 51°13.633 2°56.019 18.4338 0.019578 0.09999 -3.020363
2011-10-25 06:57:02 51°13.631 2°56.019 18.435 0.019578 0.099991 -3.020363
2011-10-25 06:57:07 51°13.63 2°56.019 18.4344 0.019578 0.099991 -3.020363
2011-10-25 06:57:11 51°13.63 2°56.019 18.4338 0.019578 0.099994 -3.020363
2011-10-25 06:57:17 51°13.629 2°56.02 18.4334 0.019578 0.099994 -3.020363
2011-10-25 06:57:22 51°13.629 2°56.02 18.4341 0.019578 0.099994 -3.020363
2011-10-25 06:57:27 51°13.629 2°56.021 18.4354 0.019578 0.099997 -3.020363
2011-10-25 06:57:31 51°13.629 2°56.021 18.4355 0.019578 0.099998 -3.020363
2011-10-25 06:57:37 51°13.629 2°56.021 18.4361 0.019578 0.099998 -3.020363
2011-10-25 06:57:42 51°13.629 2°56.021 18.4362 0.019578 0.1 -3.020363
2011-10-25 06:57:47 51°13.63 2°56.021 18.4359 0.019578 0.1 -3.020363
2011-10-25 06:57:52 51°13.631 2°56.021 18.4384 0.019578 0.100001 -3.020363
2011-10-25 06:57:58 51°13.631 2°56.021 18.4391 0.019578 0.100001 -3.020363
2011-10-25 06:58:03 51°13.631 2°56.021 18.4387 0.019578 0.100002 -3.020363
2011-10-25 06:58:08 51°13.631 2°56.022 18.4401 0.019578 0.100005 -3.020363
2011-10-25 06:58:13 51°13.631 2°56.022 18.4411 0.019578 0.100007 -3.020363
2011-10-25 06:58:19 51°13.63 2°56.023 18.4413 0.019578 0.100007 -3.020363
2011-10-25 06:58:24 51°13.63 2°56.023 18.4417 0.019578 0.100008 -3.020363
2011-10-25 06:58:28 51°13.63 2°56.023 18.4431 0.019578 0.100009 -3.020363
2011-10-25 06:58:33 51°13.63 2°56.023 18.4454 0.019578 0.100011 -3.020363
2011-10-25 06:58:38 51°13.63 2°56.023 18.4461 0.019578 0.100012 -3.020363
2011-10-25 06:58:43 51°13.63 2°56.023 18.4467 0.019578 0.100014 -3.020363
2011-10-25 06:58:48 51°13.631 2°56.023 18.4489 0.019578 0.100014 -3.020363
2011-10-25 06:58:53 51°13.631 2°56.023 18.4484 0.019578 0.100015 -3.020363
2011-10-25 06:58:58 51°13.631 2°56.023 18.4487 0.019578 0.100015 -3.020363
2011-10-25 06:59:04 51°13.632 2°56.023 18.448 0.019578 0.100016 -3.020363
2011-10-25 06:59:08 51°13.632 2°56.023 18.4452 0.019578 0.100018 -3.020363
2011-10-25 06:59:14 51°13.632 2°56.023 18.4422 0.019578 0.100019 -3.020363
2011-10-25 06:59:19 51°13.632 2°56.023 18.4417 0.019578 0.100019 -3.020363
2011-10-25 06:59:24 51°13.632 2°56.023 18.4421 0.019578 0.100021 -3.020363
2011-10-25 06:59:29 51°13.632 2°56.023 18.4436 0.019578 0.100022 -3.020363
2011-10-25 06:59:34 51°13.632 2°56.023 18.4453 0.019578 0.100024 -3.020363
2011-10-25 06:59:40 51°13.632 2°56.022 18.4445 0.019578 0.100025 -3.020363
2011-10-25 06:59:45 51°13.632 2°56.022 18.4462 0.019578 0.100028 -3.020363
2011-10-25 06:59:49 51°13.632 2°56.023 18.4462 0.019578 0.100028 -3.020363
2011-10-25 06:59:54 51°13.631 2°56.022 18.4478 0.019578 0.100028 -3.020363
2011-10-25 07:00:00 51°13.631 2°56.022 18.4483 0.019578 0.100029 -3.020363
2011-10-25 07:00:05 51°13.631 2°56.022 18.4513 0.019578 0.100031 -3.020363
2011-10-25 07:00:09 51°13.631 2°56.022 18.4518 0.019578 0.100032 -3.020363
2011-10-25 07:00:15 51°13.631 2°56.022 18.4547 0.019578 0.100033 -3.020363
2011-10-25 07:00:19 51°13.631 2°56.022 18.4545 0.019578 0.100033 -3.020363
2011-10-25 07:00:25 51°13.631 2°56.022 18.456 0.019578 0.100035 -3.020363
2011-10-25 07:00:29 51°13.631 2°56.022 18.4608 0.019578 0.100038 -3.020363
2011-10-25 07:00:34 51°13.631 2°56.022 18.4663 0.019578 0.100039 -3.020363
2011-10-25 07:00:39 51°13.631 2°56.022 18.4651 0.019578 0.100039 -3.020363
2011-10-25 07:00:44 51°13.631 2°56.022 18.4657 0.019578 0.100042 -3.020363
2011-10-25 07:00:49 51°13.631 2°56.022 18.4667 0.019578 0.100042 -3.020363
2011-10-25 07:00:54 51°13.631 2°56.022 18.4667 0.019578 0.100043 -3.020363
2011-10-25 07:00:59 51°13.631 2°56.022 18.4627 0.019578 0.100045 -3.020363
2011-10-25 07:01:04 51°13.632 2°56.022 18.462 0.019578 0.100046 -3.020363
2011-10-25 07:01:09 51°13.632 2°56.022 18.4635 0.019578 0.100046 -3.020363
2011-10-25 07:01:14 51°13.632 2°56.022 18.4645 0.019578 0.100049 -3.020363
2011-10-25 07:01:18 51°13.632 2°56.022 18.466 0.019578 0.100049 -3.020363
2011-10-25 07:01:23 51°13.632 2°56.022 18.4671 0.019578 0.10005 -3.020363
2011-10-25 07:01:29 51°13.632 2°56.022 18.4666 0.019578 0.100052 -3.020363
2011-10-25 07:01:33 51°13.632 2°56.021 18.4675 0.019578 0.100053 -3.020363
2011-10-25 07:01:39 51°13.634 2°56.021 18.4686 0.019578 0.100055 -3.020363
2011-10-25 07:01:44 51°13.635 2°56.021 18.4709 0.019578 0.100056 -3.020363
2011-10-25 07:01:49 51°13.636 2°56.021 18.4717 0.019578 0.100056 -3.020363
2011-10-25 07:01:54 51°13.636 2°56.02 18.4743 0.019578 0.100057 -3.020363
2011-10-25 07:01:59 51°13.637 2°56.019 18.4751 0.019578 0.10006 -3.020363
2011-10-25 07:02:05 51°13.637 2°56.019 18.4766 0.019578 0.10006 -3.020363
2011-10-25 07:02:10 51°13.637 2°56.018 18.4767 0.019578 0.100062 -3.020363
2011-10-25 07:02:14 51°13.637 2°56.017 18.4762 0.019578 0.100063 -3.020363
2011-10-25 07:02:19 51°13.637 2°56.017 18.4755 0.019578 0.100063 -3.020363
2011-10-25 07:02:25 51°13.637 2°56.016 18.474 0.019578 0.100066 -3.020363
2011-10-25 07:02:30 51°13.638 2°56.014 18.4745 0.019578 0.100067 -3.020363
2011-10-25 07:02:34 51°13.638 2°56.014 18.4749 0.019578 0.100069 -3.020363
2011-10-25 07:02:39 51°13.638 2°56.014 18.4731 0.019578 0.10007 -3.020363
2011-10-25 07:02:44 51°13.638 2°56.015 18.47 0.019578 0.100071 -3.020363
2011-10-25 07:02:49 51°13.638 2°56.017 18.4698 0.019578 0.100071 -3.020363
2011-10-25 07:02:55 51°13.638 2°56.018 18.4698 0.019578 0.100073 -3.020363
2011-10-25 07:02:59 51°13.637 2°56.018 18.4697 0.019578 0.100074 -3.020363
2011-10-25 07:03:04 51°13.637 2°56.018 18.4733 0.019578 0.100077 -3.020363
2011-10-25 07:03:10 51°13.636 2°56.017 18.4777 0.019578 0.100078 -3.020363
2011-10-25 07:03:15 51°13.636 2°56.016 18.476 0.019578 0.10008 -3.020363
2011-10-25 07:03:19 51°13.636 2°56.017 18.4787 0.019578 0.10008 -3.020363
2011-10-25 07:03:24 51°13.636 2°56.017 18.4833 0.019578 0.100081 -3.020363
2011-10-25 07:03:29 51°13.637 2°56.017 18.4839 0.019578 0.100083 -3.020363
2011-10-25 07:03:34 51°13.637 2°56.018 18.4851 0.019578 0.100084 -3.020363
2011-10-25 07:03:40 51°13.637 2°56.018 18.4842 0.019578 0.100087 -3.020363
2011-10-25 07:03:44 51°13.637 2°56.018 18.4838 0.019578 0.100087 -3.020363
2011-10-25 07:03:49 51°13.637 2°56.018 18.4825 0.019578 0.100087 -3.020363
2011-10-25 07:03:54 51°13.637 2°56.018 18.4845 0.019578 0.100088 -3.020363
2011-10-25 07:03:59 51°13.637 2°56.018 18.4846 0.019578 0.100091 -3.020363
2011-10-25 07:04:04 51°13.637 2°56.018 18.4875 0.019578 0.100093 -3.020363
2011-10-25 07:04:08 51°13.637 2°56.018 18.4869 0.019578 0.100094 -3.020363
2011-10-25 07:04:13 51°13.637 2°56.018 18.4859 0.019578 0.100095 -3.020363
2011-10-25 07:04:18 51°13.637 2°56.018 18.475 0.019578 0.100095 -3.020363
2011-10-25 07:04:23 51°13.637 2°56.018 18.4807 0.019578 0.100098 -3.020363
2011-10-25 07:04:28 51°13.638 2°56.018 18.4823 0.019578 0.100098 -3.020363
2011-10-25 07:04:34 51°13.637 2°56.018 18.4825 0.019578 0.100101 -3.020363
2011-10-25 07:04:37 51°13.638 2°56.018 18.4811 0.019578 0.100101 -3.020363
2011-10-25 07:04:44 51°13.638 2°56.018 18.4818 0.019578 0.100104 -3.020363
2011-10-25 07:04:49 51°13.638 2°56.018 18.4829 0.019578 0.100104 -3.020363
2011-10-25 07:04:53 51°13.638 2°56.018 18.4827 0.019578 0.100105 -3.020363
2011-10-25 07:04:58 51°13.638 2°56.018 18.4838 0.019578 0.100107 -3.020363
2011-10-25 07:05:03 51°13.637 2°56.018 18.4845 0.019578 0.100107 -3.020363
2011-10-25 07:05:08 51°13.637 2°56.018 18.4845 0.019578 0.10011 -3.020363
2011-10-25 07:05:13 51°13.637 2°56.018 18.4837 0.019578 0.100111 -3.020363
2011-10-25 07:05:17 51°13.637 2°56.018 18.4854 0.019578 0.100111 -3.020363
2011-10-25 07:05:22 51°13.637 2°56.018 18.4864 0.019578 0.100112 -3.020363
2011-10-25 07:05:27 51°13.637 2°56.018 18.4877 0.019578 0.100114 -3.020363
2011-10-25 07:05:32 51°13.637 2°56.018 18.4887 0.019578 0.100115 -3.020363
2011-10-25 07:05:37 51°13.636 2°56.018 18.4885 0.019578 0.100117 -3.020363
2011-10-25 07:05:41 51°13.636 2°56.018 18.4894 0.019578 0.100118 -3.020363
2011-10-25 07:05:46 51°13.636 2°56.018 18.4897 0.019578 0.100118 -3.020363
2011-10-25 07:05:51 51°13.636 2°56.018 18.4907 0.019578 0.100119 -3.020363
2011-10-25 07:05:56 51°13.636 2°56.018 18.4922 0.019578 0.100121 -3.020363
2011-10-25 07:06:01 51°13.636 2°56.018 18.4923 0.019578 0.100122 -3.020363
2011-10-25 07:06:06 51°13.636 2°56.018 18.4919 0.019578 0.100124 -3.020363
2011-10-25 07:06:12 51°13.636 2°56.018 18.4915 0.019578 0.100125 -3.020363
2011-10-25 07:06:17 51°13.636 2°56.018 18.4911 0.019578 0.100125 -3.020363
2011-10-25 07:06:22 51°13.636 2°56.018 18.4815 0.019578 0.100126 -3.020363
2011-10-25 07:06:26 51°13.635 2°56.018 18.4376 0.019578 0.100129 -3.020363
2011-10-25 07:06:31 51°13.635 2°56.018 18.4306 0.019578 0.100131 -3.020363
2011-10-25 07:06:36 51°13.636 2°56.017 18.4256 0.019578 0.100131 -3.020363
2011-10-25 07:06:41 51°13.636 2°56.016 18.4271 0.019578 0.100132 -3.020363
2011-10-25 07:06:46 51°13.636 2°56.014 18.48 0.019578 0.100132 -3.020363
2011-10-25 07:06:51 51°13.637 2°56.012 18.4841 0.019578 0.100134 -3.020363
2011-10-25 07:06:56 51°13.637 2°56.01 18.4763 0.019578 0.100136 -3.020363
2011-10-25 07:07:01 51°13.638 2°56.008 18.4704 0.019578 0.100138 -3.020363
2011-10-25 07:07:07 51°13.639 2°56.004 18.4543 0.019578 0.100139 -3.020363
2011-10-25 07:07:12 51°13.639 2°56.001 18.5032 0.019578 0.100141 -3.020363
2011-10-25 07:07:18 51°13.64 2°55.997 18.4761 0.019578 0.100141 -3.020363
2011-10-25 07:07:23 51°13.641 2°55.993 18.4897 0.019578 0.100142 -3.020363
2011-10-25 07:07:29 51°13.642 2°55.988 18.4944 0.019578 0.100143 -3.020363
2011-10-25 07:07:34 51°13.643 2°55.984 18.5185 0.019578 0.100146 -3.020363
2011-10-25 07:07:39 51°13.644 2°55.98 18.5192 0.019578 0.100146 -3.020363
2011-10-25 07:07:44 51°13.644 2°55.976 18.4933 0.019578 0.100149 -3.020363
2011-10-25 07:07:50 51°13.645 2°55.97 18.4868 0.019578 0.100149 -3.020363
2011-10-25 07:07:55 51°13.646 2°55.965 18.4879 0.019475 0.099642 -3.020363
2011-10-25 07:08:00 51°13.647 2°55.96 18.47 0.019578 0.100152 -3.020363
2011-10-25 07:08:04 51°13.647 2°55.955 18.521 0.019578 0.100155 -3.020363
2011-10-25 07:08:09 51°13.648 2°55.95 18.5265 0.019578 0.100156 -3.020363
2011-10-25 07:08:14 51°13.648 2°55.945 18.5401 0.019475 0.099649 -3.020363
2011-10-25 07:08:20 51°13.649 2°55.939 18.5508 0.019475 0.099649 -3.020363
2011-10-25 07:08:25 51°13.649 2°55.937 18.5507 0.019475 0.09965 -3.020363
2011-10-25 07:08:29 51°13.649 2°55.936 18.5447 0.019475 0.099652 -3.020363
2011-10-25 07:08:34 51°13.649 2°55.935 18.5338 0.019475 0.099655 -3.020363
2011-10-25 07:08:40 51°13.649 2°55.936 18.429 0.019475 0.099655 -3.020363
2011-10-25 07:08:45 51°13.649 2°55.937 18.4258 0.019475 0.099656 -3.020363
2011-10-25 07:08:49 51°13.649 2°55.937 18.3863 0.019475 0.099656 -3.020363
2011-10-25 07:08:54 51°13.649 2°55.936 18.3859 0.019475 0.099659 -3.020363
2011-10-25 07:09:00 51°13.65 2°55.935 18.4674 0.019475 0.09966 -3.020363
2011-10-25 07:09:05 51°13.65 2°55.933 18.4437 0.019475 0.099662 -3.020363
2011-10-25 07:09:09 51°13.651 2°55.931 18.4882 0.019475 0.099665 -3.020363
2011-10-25 07:09:14 51°13.652 2°55.929 18.5151 0.019475 0.099667 -3.020363
2011-10-25 07:09:19 51°13.654 2°55.925 18.5454 0.019475 0.099667 -3.020363
2011-10-25 07:09:25 51°13.656 2°55.922 18.5232 0.019475 0.099669 -3.020363
2011-10-25 07:09:29 51°13.657 2°55.918 18.5248 0.019475 0.09967 -3.020363
2011-10-25 07:09:34 51°13.659 2°55.915 18.5165 0.019475 0.099672 -3.020363
2011-10-25 07:09:40 51°13.661 2°55.91 18.5275 0.019475 0.099674 -3.020363
2011-10-25 07:09:45 51°13.663 2°55.905 18.5312 0.019475 0.099676 -3.020363
2011-10-25 07:09:50 51°13.665 2°55.9 18.5172 0.019475 0.099676 -3.020363
2011-10-25 07:09:54 51°13.667 2°55.896 18.5194 0.019475 0.099679 -3.020363
2011-10-25 07:10:00 51°13.67 2°55.89 18.516 0.019475 0.09968 -3.020363
2011-10-25 07:10:04 51°13.672 2°55.886 18.5311 0.019475 0.099681 -3.020363
2011-10-25 07:10:10 51°13.675 2°55.879 18.5346 0.019475 0.099684 -3.020363
2011-10-25 07:10:14 51°13.677 2°55.875 18.5347 0.019475 0.099686 -3.020363
2011-10-25 07:10:19 51°13.68 2°55.869 18.5284 0.019475 0.099686 -3.020363
2011-10-25 07:10:24 51°13.683 2°55.863 18.5368 0.019475 0.099687 -3.020363
2011-10-25 07:10:29 51°13.686 2°55.857 18.5371 0.019475 0.099688 -3.020363
2011-10-25 07:10:34 51°13.689 2°55.851 18.5427 0.019475 0.09969 -3.020363
2011-10-25 07:10:39 51°13.692 2°55.845 18.5466 0.019475 0.099693 -3.020363
2011-10-25 07:10:44 51°13.695 2°55.839 18.544 0.019475 0.099694 -3.020363
2011-10-25 07:10:50 51°13.698 2°55.832 18.5363 0.019475 0.099694 -3.020363
2011-10-25 07:10:55 51°13.701 2°55.826 18.5331 0.019475 0.099695 -3.020363
2011-10-25 07:10:59 51°13.704 2°55.822 18.5297 0.019475 0.099698 -3.020363
2011-10-25 07:11:05 51°13.708 2°55.815 18.5291 0.019681 0.100718 -3.020363
2011-10-25 07:11:10 51°13.711 2°55.809 18.5289 0.019475 0.099701 -3.020363
2011-10-25 07:11:15 51°13.715 2°55.803 18.5273 0.019475 0.099704 -3.020363
2011-10-25 07:11:20 51°13.718 2°55.797 18.5256 0.019475 0.099704 -3.020363
2011-10-25 07:11:25 51°13.721 2°55.791 18.5193 0.019475 0.099705 -3.020363
2011-10-25 07:11:30 51°13.725 2°55.785 18.5141 0.019475 0.099707 -3.020363
2011-10-25 07:11:35 51°13.728 2°55.778 18.5165 0.019475 0.099708 -3.020363
2011-10-25 07:11:39 51°13.731 2°55.774 18.5188 0.019475 0.099711 -3.020363
2011-10-25 07:11:45 51°13.735 2°55.766 18.5205 0.019475 0.099712 -3.020363
2011-10-25 07:11:50 51°13.739 2°55.76 18.52 0.019475 0.099712 -3.020363
2011-10-25 07:11:55 51°13.742 2°55.754 18.5004 0.019475 0.099714 -3.020363
2011-10-25 07:11:59 51°13.745 2°55.75 18.512 0.019475 0.099715 -3.020363
2011-10-25 07:12:04 51°13.748 2°55.744 18.514 0.019475 0.099717 -3.020363
2011-10-25 07:12:10 51°13.752 2°55.737 18.5173 0.019475 0.099719 -3.020363
2011-10-25 07:12:15 51°13.756 2°55.731 18.5155 0.019475 0.099721 -3.020363
2011-10-25 07:12:19 51°13.758 2°55.726 18.5225 0.019475 0.099721 -3.020363
2011-10-25 07:12:24 51°13.762 2°55.72 18.5332 0.019475 0.099722 -3.020363
2011-10-25 07:12:29 51°13.765 2°55.714 18.5146 0.019475 0.099724 -3.020363
2011-10-25 07:12:34 51°13.768 2°55.708 18.5262 0.019475 0.099726 -3.020363
2011-10-25 07:12:39 51°13.772 2°55.702 18.5381 0.019475 0.099726 -3.020363
2011-10-25 07:12:44 51°13.775 2°55.696 18.532 0.019475 0.099729 -3.020363
2011-10-25 07:12:49 51°13.779 2°55.691 18.5326 0.019475 0.099729 -3.020363
2011-10-25 07:12:55 51°13.783 2°55.684 18.5323 0.019475 0.099731 -3.020363
2011-10-25 07:12:59 51°13.786 2°55.68 18.5307 0.019475 0.099732 -3.020363
2011-10-25 07:13:04 51°13.789 2°55.675 18.5308 0.019475 0.099733 -3.020363
2011-10-25 07:13:10 51°13.794 2°55.669 18.5327 0.019475 0.099735 -3.020363
2011-10-25 07:13:15 51°13.798 2°55.664 18.5383 0.019475 0.099736 -3.020363
2011-10-25 07:13:20 51°13.802 2°55.659 18.5391 0.019475 0.099736 -3.020363
2011-10-25 07:13:24 51°13.805 2°55.656 18.5382 0.019475 0.099738 -3.020363
2011-10-25 07:13:29 51°13.809 2°55.652 18.534 0.019475 0.099739 -3.020363
2011-10-25 07:13:34 51°13.813 2°55.648 18.5337 0.019475 0.09974 -3.020363
2011-10-25 07:13:39 51°13.818 2°55.644 18.5316 0.019475 0.099742 -3.020363
2011-10-25 07:13:44 51°13.822 2°55.641 18.5208 0.019475 0.099745 -3.020363
2011-10-25 07:13:49 51°13.827 2°55.637 18.5345 0.019475 0.099745 -3.020363
2011-10-25 07:13:54 51°13.832 2°55.634 18.5445 0.019475 0.099746 -3.020363
2011-10-25 07:13:59 51°13.836 2°55.631 18.5527 0.019475 0.099748 -3.020363
2011-10-25 07:14:04 51°13.841 2°55.629 18.5458 0.019475 0.099749 -3.020363
2011-10-25 07:14:09 51°13.846 2°55.626 18.5426 0.019475 0.09975 -3.020363
2011-10-25 07:14:14 51°13.851 2°55.624 18.5446 0.019475 0.099752 -3.020363
2011-10-25 07:14:19 51°13.856 2°55.622 18.5612 0.019475 0.099752 -3.020363
2011-10-25 07:14:24 51°13.861 2°55.621 18.553 0.019475 0.099753 -3.020363
2011-10-25 07:14:29 51°13.866 2°55.62 18.5355 0.019475 0.099755 -3.020363
2011-10-25 07:14:34 51°13.87 2°55.619 18.5467 0.019475 0.099755 -3.020363
2011-10-25 07:14:39 51°13.875 2°55.618 18.563 0.019475 0.099757 -3.020363
2011-10-25 07:14:44 51°13.88 2°55.618 18.558 0.019475 0.099757 -3.020363
2011-10-25 07:14:48 51°13.884 2°55.618 18.5521 0.019475 0.099757 -3.020363
2011-10-25 07:14:55 51°13.891 2°55.618 18.5525 0.019475 0.099759 -3.020363
2011-10-25 07:15:00 51°13.895 2°55.619 18.5599 0.019475 0.09976 -3.020363
2011-10-25 07:15:05 51°13.9 2°55.621 18.5573 0.019475 0.099762 -3.020363
2011-10-25 07:15:09 51°13.903 2°55.623 18.5527 0.019475 0.099764 -3.020363
2011-10-25 07:15:14 51°13.908 2°55.625 18.548 0.019475 0.099764 -3.020363
2011-10-25 07:15:20 51°13.913 2°55.628 18.5522 0.019475 0.099764 -3.020363
2011-10-25 07:15:25 51°13.917 2°55.631 18.5538 0.019475 0.099766 -3.020363
2011-10-25 07:15:29 51°13.921 2°55.633 18.557 0.019475 0.099767 -3.020363
2011-10-25 07:15:34 51°13.925 2°55.636 18.5492 0.019475 0.099767 -3.020363
2011-10-25 07:15:39 51°13.929 2°55.64 18.5556 0.019475 0.09977 -3.020363
2011-10-25 07:15:45 51°13.933 2°55.645 18.5396 0.019475 0.099771 -3.020363
2011-10-25 07:15:49 51°13.936 2°55.648 18.5466 0.019475 0.099771 -3.020363
2011-10-25 07:15:54 51°13.94 2°55.653 18.5551 0.019475 0.099773 -3.020363
2011-10-25 07:15:59 51°13.943 2°55.657 18.5647 0.019475 0.099774 -3.020363
2011-10-25 07:16:05 51°13.947 2°55.664 18.5796 0.019475 0.099776 -3.020363
2011-10-25 07:16:09 51°13.949 2°55.667 18.5866 0.019475 0.099776 -3.020363
2011-10-25 07:16:15 51°13.952 2°55.673 18.5816 0.019475 0.099777 -3.020363
2011-10-25 07:16:19 51°13.954 2°55.677 18.5786 0.019475 0.099777 -3.020363
2011-10-25 07:16:24 51°13.956 2°55.681 18.5675 0.019475 0.099779 -3.020363
2011-10-25 07:16:29 51°13.958 2°55.685 18.5645 0.019475 0.09978 -3.020363
2011-10-25 07:16:34 51°13.959 2°55.688 18.5726 0.019475 0.099781 -3.020363
2011-10-25 07:16:39 51°13.96 2°55.69 18.5871 0.019475 0.099783 -3.020363
2011-10-25 07:16:44 51°13.961 2°55.691 18.5909 0.019475 0.099783 -3.020363
2011-10-25 07:16:49 51°13.961 2°55.691 18.5753 0.019475 0.099783 -3.020363
2011-10-25 07:16:54 51°13.962 2°55.69 18.5732 0.019475 0.099784 -3.020363
2011-10-25 07:16:59 51°13.962 2°55.688 18.5134 0.019475 0.099786 -3.020363
2011-10-25 07:17:03 51°13.963 2°55.686 18.5283 0.019475 0.099787 -3.020363
2011-10-25 07:17:08 51°13.964 2°55.682 18.5024 0.019475 0.099787 -3.020363
2011-10-25 07:17:13 51°13.965 2°55.678 18.3891 0.019475 0.099788 -3.020363
2011-10-25 07:17:18 51°13.966 2°55.674 18.5073 0.019475 0.099788 -3.020363
2011-10-25 07:17:23 51°13.967 2°55.669 18.5146 0.019475 0.09979 -3.020363
2011-10-25 07:17:28 51°13.969 2°55.664 18.5471 0.019475 0.099793 -3.020363
2011-10-25 07:17:34 51°13.971 2°55.656 18.5495 0.019475 0.099794 -3.020363
2011-10-25 07:17:38 51°13.974 2°55.65 18.5435 0.019475 0.099794 -3.020363
2011-10-25 07:17:43 51°13.977 2°55.641 18.5286 0.019475 0.099795 -3.020363
2011-10-25 07:17:48 51°13.98 2°55.632 18.5114 0.019475 0.099795 -3.020363
2011-10-25 07:17:53 51°13.984 2°55.622 18.4814 0.019475 0.099797 -3.020363
2011-10-25 07:17:58 51°13.989 2°55.611 18.4183 0.019475 0.099798 -3.020363
2011-10-25 07:18:02 51°13.993 2°55.603 18.4219 0.019475 0.0998 -3.020363
2011-10-25 07:18:07 51°13.999 2°55.592 18.3873 0.019475 0.099801 -3.020363
2011-10-25 07:18:12 51°14.005 2°55.581 18.3864 0.019475 0.099803 -3.020363
2011-10-25 07:18:17 51°14.012 2°55.571 18.4005 0.019475 0.099803 -3.020363
2011-10-25 07:18:22 51°14.019 2°55.56 18.422 0.019475 0.099804 -3.020363
2011-10-25 07:18:27 51°14.026 2°55.55 18.4139 0.019475 0.099805 -3.020363
2011-10-25 07:18:31 51°14.032 2°55.541 18.3873 0.019475 0.099808 -3.020363
2011-10-25 07:18:38 51°14.043 2°55.527 18.4286 0.019475 0.09981 -3.020363
2011-10-25 07:18:41 51°14.048 2°55.521 18.4535 0.019475 0.099811 -3.020363
2011-10-25 07:18:46 51°14.057 2°55.512 18.4448 0.019475 0.099811 -3.020363
2011-10-25 07:18:52 51°14.067 2°55.5 18.414 0.019475 0.099812 -3.020363
2011-10-25 07:18:57 51°14.076 2°55.49 18.4637 0.019475 0.099814 -3.020363
2011-10-25 07:19:02 51°14.085 2°55.481 18.4845 0.019475 0.099817 -3.020363
2011-10-25 07:19:07 51°14.094 2°55.471 18.5137 0.019475 0.099818 -3.020363
2011-10-25 07:19:12 51°14.103 2°55.461 18.4418 0.019475 0.099819 -3.020363
2011-10-25 07:19:18 51°14.114 2°55.449 18.4622 0.019475 0.099819 -3.020363
2011-10-25 07:19:23 51°14.124 2°55.439 18.4765 0.019475 0.099821 -3.020363
2011-10-25 07:19:28 51°14.133 2°55.43 18.4698 0.019475 0.099822 -3.020363
2011-10-25 07:19:32 51°14.14 2°55.422 18.4656 0.019475 0.099824 -3.020363
2011-10-25 07:19:38 51°14.152 2°55.41 18.4645 0.019475 0.099827 -3.020363
2011-10-25 07:19:44 51°14.163 2°55.398 18.4479 0.019475 0.099828 -3.020363
2011-10-25 07:19:48 51°14.171 2°55.391 18.4703 0.019475 0.099828 -3.020363
2011-10-25 07:19:53 51°14.181 2°55.381 18.4482 0.019475 0.099829 -3.020363
2011-10-25 07:19:59 51°14.192 2°55.369 18.4558 0.019475 0.099831 -3.020363
2011-10-25 07:20:04 51°14.202 2°55.361 18.4947 0.019475 0.099832 -3.020363
2011-10-25 07:20:09 51°14.212 2°55.352 18.4943 0.019475 0.099834 -3.020363
2011-10-25 07:20:15 51°14.224 2°55.341 18.4503 0.019475 0.099835 -3.020363
2011-10-25 07:20:20 51°14.233 2°55.332 18.4649 0.019475 0.099835 -3.020363
2011-10-25 07:20:25 51°14.243 2°55.324 18.5273 0.019475 0.099836 -3.020363
2011-10-25 07:20:29 51°14.251 2°55.317 18.4988 0.019475 0.099838 -3.020363
2011-10-25 07:20:34 51°14.261 2°55.308 18.4746 0.019475 0.099839 -3.020363
2011-10-25 07:20:39 51°14.27 2°55.299 18.5215 0.019475 0.099841 -3.020363
2011-10-25 07:20:44 51°14.28 2°55.29 18.4991 0.019475 0.099842 -3.020363
2011-10-25 07:20:49 51°14.291 2°55.281 18.5188 0.019475 0.099842 -3.020363
2011-10-25 07:20:54 51°14.301 2°55.271 18.5134 0.019372 0.099335 -3.020363
2011-10-25 07:21:00 51°14.314 2°55.259 18.4938 0.019475 0.099845 -3.020363
2011-10-25 07:21:05 51°14.325 2°55.249 18.4697 0.019372 0.099337 -3.020363
2011-10-25 07:21:10 51°14.336 2°55.239 18.5098 0.019372 0.099338 -3.020363
2011-10-25 07:21:14 51°14.345 2°55.23 18.4752 0.019372 0.099339 -3.020363
2011-10-25 07:21:19 51°14.356 2°55.219 18.51 0.019372 0.099339 -3.020363
2011-10-25 07:21:24 51°14.367 2°55.208 18.4757 0.019372 0.099341 -3.020363
2011-10-25 07:21:29 51°14.378 2°55.197 18.4878 0.019372 0.099341 -3.020363
2011-10-25 07:21:35 51°14.392 2°55.184 18.4247 0.019372 0.099344 -3.020363
2011-10-25 07:21:39 51°14.401 2°55.175 18.4621 0.019372 0.099345 -3.020363
2011-10-25 07:21:44 51°14.412 2°55.164 18.4927 0.019372 0.099346 -3.020363
2011-10-25 07:21:49 51°14.423 2°55.153 18.4663 0.019372 0.099346 -3.020363
2011-10-25 07:21:54 51°14.435 2°55.142 18.4936 0.019372 0.099346 -3.020363
2011-10-25 07:21:59 51°14.446 2°55.131 18.4706 0.019372 0.099348 -3.020363
2011-10-25 07:22:04 51°14.457 2°55.119 18.5238 0.019372 0.099349 -3.020363
2011-10-25 07:22:09 51°14.469 2°55.108 18.518 0.019372 0.099349 -3.020363
2011-10-25 07:22:13 51°14.478 2°55.099 18.5109 0.019372 0.099352 -3.020363
2011-10-25 07:22:19 51°14.492 2°55.085 18.5115 0.019372 0.099352 -3.020363
2011-10-25 07:22:23 51°14.501 2°55.076 18.5257 0.019372 0.099354 -3.020363
2011-10-25 07:22:28 51°14.512 2°55.064 18.5354 0.019372 0.099355 -3.020363
2011-10-25 07:22:34 51°14.526 2°55.048 18.4763 0.019372 0.099356 -3.020363
2011-10-25 07:22:38 51°14.535 2°55.037 18.4493 0.019372 0.099358 -3.020363
2011-10-25 07:22:44 51°14.548 2°55.02 18.5306 0.019372 0.099359 -3.020363
2011-10-25 07:22:48 51°14.557 2°55.008 18.5425 0.019372 0.099359 -3.020363
2011-10-25 07:22:53 51°14.568 2°54.991 18.5036 0.019372 0.099362 -3.020363
2011-10-25 07:22:58 51°14.577 2°54.973 18.5101 0.019372 0.099362 -3.020363
2011-10-25 07:23:03 51°14.586 2°54.954 18.5013 0.019372 0.099363 -3.020363
2011-10-25 07:23:08 51°14.595 2°54.935 18.4753 0.019372 0.099365 -3.020363
2011-10-25 07:23:12 51°14.601 2°54.919 18.5214 0.019372 0.099366 -3.020363
2011-10-25 07:23:17 51°14.609 2°54.898 18.502 0.019372 0.099366 -3.020363
2011-10-25 07:23:22 51°14.616 2°54.876 18.5259 0.019372 0.099368 -3.020363
2011-10-25 07:23:27 51°14.622 2°54.854 18.5363 0.019372 0.099369 -3.020363
2011-10-25 07:23:32 51°14.628 2°54.831 18.5564 0.019372 0.09937 -3.020363
2011-10-25 07:23:37 51°14.632 2°54.808 18.5321 0.019372 0.099372 -3.020363
2011-10-25 07:23:41 51°14.634 2°54.789 18.5637 0.019372 0.099373 -3.020363
2011-10-25 07:23:46 51°14.636 2°54.765 18.5447 0.019372 0.099373 -3.020363
2011-10-25 07:23:52 51°14.637 2°54.736 18.5596 0.019372 0.099375 -3.020363
2011-10-25 07:23:56 51°14.636 2°54.717 18.55 0.019372 0.099377 -3.020363
2011-10-25 07:24:01 51°14.634 2°54.693 18.5292 0.019372 0.099379 -3.020363
2011-10-25 07:24:06 51°14.631 2°54.669 18.5305 0.019372 0.099379 -3.020363
2011-10-25 07:24:11 51°14.627 2°54.647 18.5326 0.019372 0.09938 -3.020363
2011-10-25 07:24:16 51°14.622 2°54.624 18.4571 0.019372 0.09938 -3.020363
2011-10-25 07:24:20 51°14.617 2°54.606 18.464 0.019372 0.099382 -3.020363
2011-10-25 07:24:25 51°14.61 2°54.585 18.4889 0.019372 0.099383 -3.020363
2011-10-25 07:24:30 51°14.603 2°54.563 18.4679 0.019372 0.099384 -3.020363
2011-10-25 07:24:36 51°14.594 2°54.537 18.4182 0.019372 0.099386 -3.020363
2011-10-25 07:24:40 51°14.588 2°54.52 18.4114 0.019372 0.099386 -3.020363
2011-10-25 07:24:46 51°14.578 2°54.494 18.3899 0.019372 0.099386 -3.020363
2011-10-25 07:24:51 51°14.57 2°54.473 18.3701 0.019372 0.099389 -3.020363
2011-10-25 07:24:56 51°14.562 2°54.451 18.3789 0.019372 0.099389 -3.020363
2011-10-25 07:25:01 51°14.554 2°54.429 18.4415 0.019372 0.09939 -3.020363
2011-10-25 07:25:06 51°14.547 2°54.407 18.4263 0.019372 0.099391 -3.020363
2011-10-25 07:25:11 51°14.539 2°54.385 18.4316 0.019372 0.099393 -3.020363
2011-10-25 07:25:16 51°14.531 2°54.362 18.4652 0.019372 0.099393 -3.020363
2011-10-25 07:25:22 51°14.521 2°54.335 18.5094 0.019372 0.099394 -3.020363
2011-10-25 07:25:25 51°14.516 2°54.321 18.4159 0.019372 0.099396 -3.020363
2011-10-25 07:25:31 51°14.506 2°54.294 18.3698 0.019372 0.099397 -3.020363
2011-10-25 07:25:35 51°14.499 2°54.276 18.4293 0.019372 0.099398 -3.020363
2011-10-25 07:25:41 51°14.488 2°54.247 18.3896 0.019372 0.099401 -3.020363
2011-10-25 07:25:46 51°14.479 2°54.224 18.4269 0.019372 0.099401 -3.020363
2011-10-25 07:25:51 51°14.47 2°54.2 18.3842 0.019372 0.099401 -3.020363
2011-10-25 07:25:56 51°14.462 2°54.176 18.4099 0.019372 0.099404 -3.020363
2011-10-25 07:26:01 51°14.454 2°54.151 18.4003 0.019372 0.099406 -3.020363
2011-10-25 07:26:06 51°14.445 2°54.127 18.434 0.019372 0.099408 -3.020363
2011-10-25 07:26:11 51°14.437 2°54.102 18.4261 0.019372 0.09941 -3.020363
2011-10-25 07:26:16 51°14.429 2°54.077 18.4778 0.019372 0.09941 -3.020363
2011-10-25 07:26:21 51°14.421 2°54.052 18.4462 0.019372 0.099411 -3.020363
2011-10-25 07:26:26 51°14.413 2°54.028 18.4781 0.019372 0.099414 -3.020363
2011-10-25 07:26:30 51°14.406 2°54.008 18.3365 0.019372 0.099415 -3.020363
2011-10-25 07:26:36 51°14.395 2°53.979 18.4752 0.019372 0.099417 -3.020363
2011-10-25 07:26:40 51°14.388 2°53.96 18.3092 0.019372 0.099417 -3.020363
2011-10-25 07:26:46 51°14.377 2°53.931 18.4203 0.019372 0.099417 -3.020363
2011-10-25 07:26:50 51°14.37 2°53.912 18.3284 0.019372 0.09942 -3.020363
2011-10-25 07:26:55 51°14.36 2°53.888 18.4084 0.019372 0.099422 -3.020363
2011-10-25 07:27:00 51°14.351 2°53.864 18.3592 0.019372 0.099425 -3.020363
2011-10-25 07:27:06 51°14.34 2°53.835 18.4684 0.019372 0.099428 -3.020363
2011-10-25 07:27:11 51°14.33 2°53.812 18.3896 0.019372 0.099431 -3.020363
2011-10-25 07:27:16 51°14.321 2°53.788 18.4455 0.019372 0.099431 -3.020363
2011-10-25 07:27:21 51°14.311 2°53.766 18.3152 0.019372 0.099432 -3.020363
2011-10-25 07:27:26 51°14.3 2°53.742 18.4313 0.019372 0.099434 -3.020363
2011-10-25 07:27:31 51°14.29 2°53.72 18.3482 0.019372 0.099436 -3.020363
2011-10-25 07:27:36 51°14.28 2°53.697 18.4253 0.019372 0.099438 -3.020363
2011-10-25 07:27:41 51°14.27 2°53.674 18.3912 0.019372 0.099441 -3.020363
2011-10-25 07:27:46 51°14.258 2°53.652 18.4293 0.019372 0.099441 -3.020363
2011-10-25 07:27:51 51°14.248 2°53.629 18.4157 0.019372 0.099444 -3.020363
2011-10-25 07:27:56 51°14.238 2°53.607 18.363 0.019372 0.099445 -3.020363
2011-10-25 07:28:01 51°14.227 2°53.585 18.4147 0.019372 0.099446 -3.020363
2011-10-25 07:28:06 51°14.217 2°53.562 18.356 0.019372 0.099448 -3.020363
2011-10-25 07:28:11 51°14.206 2°53.539 18.3539 0.019372 0.099449 -3.020363
2011-10-25 07:28:16 51°14.196 2°53.516 18.3966 0.019372 0.099449 -3.020363
2011-10-25 07:28:21 51°14.186 2°53.493 18.3805 0.019372 0.099452 -3.020363
2011-10-25 07:28:26 51°14.177 2°53.469 18.3817 0.019372 0.099455 -3.020363
2011-10-25 07:28:31 51°14.168 2°53.444 18.3961 0.019372 0.099456 -3.020363
2011-10-25 07:28:35 51°14.161 2°53.425 18.4139 0.019372 0.099458 -3.020363
2011-10-25 07:28:40 51°14.153 2°53.4 18.4152 0.019372 0.09946 -3.020363
2011-10-25 07:28:46 51°14.143 2°53.37 18.4176 0.019372 0.09946 -3.020363
2011-10-25 07:28:52 51°14.134 2°53.34 18.4129 0.019372 0.099463 -3.020363
2011-10-25 07:28:56 51°14.127 2°53.319 18.4449 0.019372 0.099465 -3.020363
2011-10-25 07:29:01 51°14.119 2°53.294 18.4079 0.019372 0.099467 -3.020363
2011-10-25 07:29:06 51°14.111 2°53.27 18.4402 0.019372 0.09947 -3.020363
2011-10-25 07:29:11 51°14.103 2°53.245 18.3886 0.019372 0.099472 -3.020363
2011-10-25 07:29:16 51°14.094 2°53.22 18.467 0.019372 0.099472 -3.020363
2011-10-25 07:29:21 51°14.085 2°53.195 18.3645 0.019372 0.099475 -3.020363
2011-10-25 07:29:26 51°14.076 2°53.171 18.4203 0.019372 0.099476 -3.020363
2011-10-25 07:29:31 51°14.067 2°53.147 18.3775 0.019372 0.099479 -3.020363
2011-10-25 07:29:36 51°14.058 2°53.123 18.4386 0.019372 0.099482 -3.020363
2011-10-25 07:29:41 51°14.049 2°53.098 18.4194 0.019372 0.099483 -3.020363
2011-10-25 07:29:46 51°14.039 2°53.075 18.424 0.019372 0.099483 -3.020363
2011-10-25 07:29:51 51°14.029 2°53.052 18.387 0.019372 0.099487 -3.020363
2011-10-25 07:29:56 51°14.019 2°53.028 18.4252 0.019372 0.099489 -3.020363
2011-10-25 07:30:01 51°14.008 2°53.006 18.3825 0.019372 0.099491 -3.020363
2011-10-25 07:30:06 51°13.998 2°52.982 18.4092 0.019372 0.099493 -3.020363
2011-10-25 07:30:11 51°13.988 2°52.96 18.3885 0.019372 0.099496 -3.020363
2011-10-25 07:30:16 51°13.978 2°52.937 18.4243 0.019372 0.099496 -3.020363
2011-10-25 07:30:21 51°13.967 2°52.914 18.3789 0.019372 0.099498 -3.020363
2011-10-25 07:30:26 51°13.957 2°52.891 18.4113 0.019372 0.0995 -3.020363
2011-10-25 07:30:31 51°13.947 2°52.868 18.3854 0.019372 0.099503 -3.020363
2011-10-25 07:30:36 51°13.936 2°52.845 18.4166 0.019372 0.099506 -3.020363
2011-10-25 07:30:41 51°13.926 2°52.822 18.3655 0.019372 0.099507 -3.020363
2011-10-25 07:30:46 51°13.916 2°52.799 18.4182 0.019372 0.099507 -3.020363
2011-10-25 07:30:51 51°13.906 2°52.776 18.3628 0.019372 0.099511 -3.020363
2011-10-25 07:30:56 51°13.896 2°52.752 18.4193 0.019372 0.099513 -3.020363
2011-10-25 07:31:01 51°13.886 2°52.729 18.3969 0.019372 0.099515 -3.020363
2011-10-25 07:31:06 51°13.876 2°52.706 18.3816 0.019372 0.099517 -3.020363
2011-10-25 07:31:11 51°13.866 2°52.683 18.3667 0.019372 0.09952 -3.020363
2011-10-25 07:31:16 51°13.856 2°52.659 18.4125 0.019372 0.09952 -3.020363
2011-10-25 07:31:21 51°13.847 2°52.635 18.4178 0.019372 0.099522 -3.020363
2011-10-25 07:31:26 51°13.837 2°52.611 18.409 0.019372 0.099525 -3.020363
2011-10-25 07:31:31 51°13.827 2°52.587 18.4361 0.019372 0.099527 -3.020363
2011-10-25 07:31:36 51°13.818 2°52.564 18.3899 0.019372 0.099531 -3.020363
2011-10-25 07:31:41 51°13.808 2°52.54 18.4233 0.019372 0.099534 -3.020363
2011-10-25 07:31:46 51°13.798 2°52.516 18.3795 0.019372 0.099534 -3.020363
2011-10-25 07:31:51 51°13.789 2°52.492 18.4391 0.019372 0.099535 -3.020363
2011-10-25 07:31:56 51°13.779 2°52.468 18.4066 0.019372 0.099538 -3.020363
2011-10-25 07:32:01 51°13.77 2°52.444 18.4287 0.019372 0.099539 -3.020363
2011-10-25 07:32:06 51°13.761 2°52.42 18.4425 0.019372 0.099542 -3.020363
2011-10-25 07:32:11 51°13.751 2°52.397 18.411 0.019372 0.099545 -3.020363
2011-10-25 07:32:16 51°13.741 2°52.373 18.437 0.019372 0.099545 -3.020363
2011-10-25 07:32:21 51°13.732 2°52.349 18.4168 0.019372 0.099548 -3.020363
2011-10-25 07:32:26 51°13.722 2°52.326 18.4217 0.019372 0.099551 -3.020363
2011-10-25 07:32:31 51°13.713 2°52.302 18.3874 0.019372 0.099552 -3.020363
2011-10-25 07:32:36 51°13.703 2°52.278 18.4196 0.019372 0.099555 -3.020363
2011-10-25 07:32:41 51°13.694 2°52.254 18.373 0.019372 0.099556 -3.020363
2011-10-25 07:32:45 51°13.686 2°52.235 18.4297 0.019372 0.099556 -3.020363
2011-10-25 07:32:51 51°13.675 2°52.205 18.4065 0.019372 0.099561 -3.020363
2011-10-25 07:32:56 51°13.666 2°52.181 18.4178 0.019372 0.099562 -3.020363
2011-10-25 07:33:01 51°13.658 2°52.156 18.4106 0.019372 0.099563 -3.020363
2011-10-25 07:33:05 51°13.651 2°52.136 18.42 0.019372 0.099566 -3.020363
2011-10-25 07:33:11 51°13.64 2°52.107 18.4564 0.019372 0.099568 -3.020363
2011-10-25 07:33:16 51°13.631 2°52.082 18.3758 0.019372 0.099568 -3.020363
2011-10-25 07:33:21 51°13.623 2°52.057 18.4373 0.019372 0.09957 -3.020363
2011-10-25 07:33:26 51°13.614 2°52.032 18.3853 0.019372 0.099573 -3.020363
2011-10-25 07:33:30 51°13.607 2°52.013 18.4414 0.019372 0.099576 -3.020363
2011-10-25 07:33:36 51°13.597 2°51.983 18.4039 0.019372 0.099578 -3.020363
2011-10-25 07:33:41 51°13.588 2°51.958 18.4482 0.019372 0.09958 -3.020363
2011-10-25 07:33:46 51°13.58 2°51.933 18.4045 0.019372 0.09958 -3.020363
2011-10-25 07:33:51 51°13.571 2°51.908 18.4177 0.019372 0.099582 -3.020363
2011-10-25 07:33:55 51°13.564 2°51.888 18.4402 0.019372 0.099585 -3.020363
2011-10-25 07:34:01 51°13.554 2°51.859 18.4065 0.019372 0.099587 -3.020363
2011-10-25 07:34:06 51°13.545 2°51.834 18.4532 0.019372 0.099589 -3.020363
2011-10-25 07:34:11 51°13.536 2°51.81 18.3948 0.019372 0.099592 -3.020363
2011-10-25 07:34:16 51°13.527 2°51.785 18.4153 0.019372 0.099592 -3.020363
2011-10-25 07:34:21 51°13.518 2°51.761 18.3676 0.019372 0.099593 -3.020363
2011-10-25 07:34:26 51°13.509 2°51.736 18.4383 0.019372 0.099595 -3.020363
2011-10-25 07:34:31 51°13.501 2°51.711 18.4031 0.019269 0.099086 -3.020363
2011-10-25 07:34:35 51°13.494 2°51.691 18.4241 0.019269 0.099088 -3.020363
2011-10-25 07:34:41 51°13.485 2°51.661 18.4291 0.019269 0.09909 -3.020363
2011-10-25 07:34:46 51°13.476 2°51.636 18.4307 0.019269 0.09909 -3.020363
2011-10-25 07:34:52 51°13.467 2°51.605 18.3993 0.019269 0.09909 -3.020363
2011-10-25 07:34:56 51°13.46 2°51.585 18.4504 0.019269 0.099093 -3.020363
2011-10-25 07:35:01 51°13.452 2°51.56 18.4339 0.019269 0.099096 -3.020363
2011-10-25 07:35:06 51°13.444 2°51.535 18.4222 0.019269 0.099097 -3.020363
2011-10-25 07:35:11 51°13.436 2°51.51 18.4386 0.019269 0.0991 -3.020363
2011-10-25 07:35:16 51°13.427 2°51.485 18.4294 0.019269 0.0991 -3.020363
2011-10-25 07:35:20 51°13.421 2°51.464 18.3963 0.019269 0.099102 -3.020363
2011-10-25 07:35:26 51°13.411 2°51.435 18.4549 0.019269 0.099103 -3.020363
2011-10-25 07:35:32 51°13.401 2°51.404 18.4011 0.019269 0.099105 -3.020363
2011-10-25 07:35:36 51°13.394 2°51.384 18.4695 0.019269 0.099107 -3.020363
2011-10-25 07:35:41 51°13.386 2°51.359 18.3831 0.019269 0.099109 -3.020363
2011-10-25 07:35:46 51°13.377 2°51.334 18.4565 0.019269 0.099109 -3.020363
2011-10-25 07:35:51 51°13.369 2°51.309 18.3821 0.019269 0.099112 -3.020363
2011-10-25 07:35:56 51°13.361 2°51.285 18.446 0.019269 0.099113 -3.020363
2011-10-25 07:36:01 51°13.352 2°51.26 18.4083 0.019269 0.099117 -3.020363
2011-10-25 07:36:06 51°13.343 2°51.235 18.4591 0.019269 0.099117 -3.020363
2011-10-25 07:36:11 51°13.335 2°51.211 18.3818 0.019269 0.09912 -3.020363
2011-10-25 07:36:16 51°13.326 2°51.186 18.4135 0.019269 0.09912 -3.020363
2011-10-25 07:36:21 51°13.317 2°51.161 18.4447 0.019269 0.099123 -3.020363
2011-10-25 07:36:26 51°13.308 2°51.137 18.369 0.019269 0.099124 -3.020363
2011-10-25 07:36:31 51°13.299 2°51.113 18.4621 0.019269 0.099126 -3.020363
2011-10-25 07:36:36 51°13.29 2°51.088 18.4032 0.019269 0.099128 -3.020363
2011-10-25 07:36:41 51°13.281 2°51.064 18.4446 0.019269 0.099131 -3.020363
2011-10-25 07:36:46 51°13.272 2°51.039 18.4127 0.019269 0.099131 -3.020363
2011-10-25 07:36:51 51°13.263 2°51.015 18.4395 0.019269 0.099131 -3.020363
2011-10-25 07:36:56 51°13.254 2°50.991 18.4299 0.019269 0.099134 -3.020363
2011-10-25 07:37:01 51°13.245 2°50.966 18.4131 0.019269 0.099134 -3.020363
2011-10-25 07:37:06 51°13.236 2°50.942 18.4388 0.019269 0.099137 -3.020363
2011-10-25 07:37:11 51°13.227 2°50.918 18.4348 0.019269 0.09914 -3.020363
2011-10-25 07:37:16 51°13.218 2°50.893 18.4306 0.019269 0.09914 -3.020363
2011-10-25 07:37:21 51°13.21 2°50.868 18.4179 0.019269 0.09914 -3.020363
2011-10-25 07:37:26 51°13.2 2°50.844 18.4521 0.019269 0.099142 -3.020363
2011-10-25 07:37:31 51°13.192 2°50.82 18.4327 0.019269 0.099144 -3.020363
2011-10-25 07:37:36 51°13.183 2°50.796 18.4306 0.019269 0.099145 -3.020363
2011-10-25 07:37:41 51°13.174 2°50.771 18.45 0.019269 0.099147 -3.020363
2011-10-25 07:37:46 51°13.165 2°50.747 18.4099 0.019269 0.099147 -3.020363
2011-10-25 07:37:51 51°13.155 2°50.723 18.4511 0.019269 0.099148 -3.020363
2011-10-25 07:37:56 51°13.146 2°50.699 18.4236 0.019269 0.099151 -3.020363
2011-10-25 07:38:01 51°13.137 2°50.675 18.4439 0.019269 0.099152 -3.020363
2011-10-25 07:38:06 51°13.128 2°50.65 18.4271 0.019269 0.099155 -3.020363
2011-10-25 07:38:10 51°13.12 2°50.631 18.4513 0.019269 0.099157 -3.020363
2011-10-25 07:38:16 51°13.109 2°50.603 18.4749 0.019269 0.099157 -3.020363
2011-10-25 07:38:22 51°13.098 2°50.574 18.4463 0.019269 0.099159 -3.020363
2011-10-25 07:38:26 51°13.09 2°50.555 18.4354 0.019269 0.099161 -3.020363
2011-10-25 07:38:31 51°13.081 2°50.532 18.4393 0.019269 0.099164 -3.020363
2011-10-25 07:38:36 51°13.071 2°50.508 18.4579 0.019269 0.099165 -3.020363
2011-10-25 07:38:41 51°13.061 2°50.485 18.451 0.019269 0.099168 -3.020363
2011-10-25 07:38:46 51°13.051 2°50.462 18.4428 0.019269 0.099168 -3.020363
2011-10-25 07:38:50 51°13.043 2°50.443 18.4447 0.019269 0.099169 -3.020363
2011-10-25 07:38:56 51°13.031 2°50.415 18.421 0.019269 0.099172 -3.020363
2011-10-25 07:39:01 51°13.021 2°50.392 18.4525 0.019269 0.099173 -3.020363
2011-10-25 07:39:06 51°13.011 2°50.369 18.4673 0.019269 0.099176 -3.020363
2011-10-25 07:39:10 51°13.003 2°50.35 18.4445 0.019269 0.099178 -3.020363
2011-10-25 07:39:15 51°12.993 2°50.327 18.4447 0.019269 0.099178 -3.020363
2011-10-25 07:39:20 51°12.984 2°50.303 18.4348 0.019269 0.099181 -3.020363
2011-10-25 07:39:26 51°12.972 2°50.274 18.4411 0.019269 0.099183 -3.020363
2011-10-25 07:39:30 51°12.965 2°50.255 18.43 0.019269 0.099186 -3.020363
2011-10-25 07:39:35 51°12.955 2°50.232 18.4192 0.019269 0.099189 -3.020363
2011-10-25 07:39:41 51°12.944 2°50.203 18.4734 0.019269 0.09919 -3.020363
2011-10-25 07:39:46 51°12.935 2°50.179 18.4138 0.019269 0.09919 -3.020363
2011-10-25 07:39:51 51°12.926 2°50.155 18.4792 0.019269 0.099193 -3.020363
2011-10-25 07:39:55 51°12.919 2°50.135 18.4519 0.019269 0.099196 -3.020363
2011-10-25 07:40:00 51°12.91 2°50.111 18.4901 0.019269 0.099199 -3.020363
2011-10-25 07:40:06 51°12.899 2°50.082 18.4166 0.019269 0.099202 -3.020363
2011-10-25 07:40:11 51°12.888 2°50.059 18.4726 0.019269 0.099203 -3.020363
2011-10-25 07:40:16 51°12.879 2°50.036 18.4489 0.019269 0.099203 -3.020363
2011-10-25 07:40:21 51°12.869 2°50.013 18.4422 0.019269 0.099206 -3.020363
2011-10-25 07:40:26 51°12.859 2°49.99 18.4732 0.019269 0.099207 -3.020363
2011-10-25 07:40:31 51°12.849 2°49.967 18.4572 0.019269 0.09921 -3.020363
2011-10-25 07:40:36 51°12.839 2°49.944 18.4469 0.019269 0.099212 -3.020363
2011-10-25 07:40:41 51°12.828 2°49.921 18.4469 0.019269 0.099214 -3.020363
2011-10-25 07:40:46 51°12.819 2°49.898 18.4469 0.019269 0.099214 -3.020363
2011-10-25 07:40:51 51°12.809 2°49.875 18.4736 0.019269 0.099217 -3.020363
2011-10-25 07:40:56 51°12.799 2°49.852 18.4448 0.019269 0.09922 -3.020363
2011-10-25 07:41:00 51°12.791 2°49.834 18.475 0.019269 0.099221 -3.020363
2011-10-25 07:41:06 51°12.779 2°49.805 18.4762 0.019269 0.099224 -3.020363
2011-10-25 07:41:11 51°12.769 2°49.782 18.4534 0.019269 0.099226 -3.020363
2011-10-25 07:41:16 51°12.76 2°49.758 18.4702 0.019269 0.099226 -3.020363
2011-10-25 07:41:20 51°12.753 2°49.739 18.4298 0.019269 0.09923 -3.020363
2011-10-25 07:41:26 51°12.741 2°49.711 18.4657 0.019269 0.099231 -3.020363
2011-10-25 07:41:31 51°12.732 2°49.687 18.3927 0.019269 0.099234 -3.020363
2011-10-25 07:41:36 51°12.722 2°49.664 18.4676 0.019269 0.099237 -3.020363
2011-10-25 07:41:40 51°12.715 2°49.644 18.4364 0.019269 0.099238 -3.020363
2011-10-25 07:41:46 51°12.703 2°49.616 18.4676 0.019269 0.099238 -3.020363
2011-10-25 07:41:51 51°12.694 2°49.592 18.4546 0.019269 0.099243 -3.020363
2011-10-25 07:41:56 51°12.685 2°49.569 18.4703 0.019269 0.099245 -3.020363
2011-10-25 07:42:00 51°12.677 2°49.55 18.4265 0.019269 0.099247 -3.020363
2011-10-25 07:42:06 51°12.666 2°49.521 18.4921 0.019269 0.09925 -3.020363
2011-10-25 07:42:11 51°12.657 2°49.497 18.4269 0.019269 0.099251 -3.020363
2011-10-25 07:42:16 51°12.648 2°49.473 18.4788 0.019269 0.099251 -3.020363
2011-10-25 07:42:20 51°12.641 2°49.454 18.4653 0.019269 0.099255 -3.020363
2011-10-25 07:42:25 51°12.631 2°49.431 18.4777 0.019269 0.099257 -3.020363
2011-10-25 07:42:30 51°12.622 2°49.407 18.466 0.019269 0.09926 -3.020363
2011-10-25 07:42:36 51°12.611 2°49.378 18.4544 0.019269 0.099262 -3.020363
2011-10-25 07:42:40 51°12.603 2°49.359 18.4552 0.019269 0.099265 -3.020363
2011-10-25 07:42:46 51°12.593 2°49.331 18.4565 0.019269 0.099265 -3.020363
2011-10-25 07:42:51 51°12.583 2°49.307 18.459 0.019269 0.099267 -3.020363
2011-10-25 07:42:56 51°12.575 2°49.283 18.4623 0.019269 0.099269 -3.020363
2011-10-25 07:43:00 51°12.568 2°49.263 18.4522 0.019269 0.099271 -3.020363
2011-10-25 07:43:06 51°12.558 2°49.234 18.4667 0.019269 0.099274 -3.020363
2011-10-25 07:43:11 51°12.549 2°49.209 18.4673 0.019269 0.099276 -3.020363
2011-10-25 07:43:16 51°12.542 2°49.184 18.4626 0.019269 0.099276 -3.020363
2011-10-25 07:43:20 51°12.536 2°49.163 18.4406 0.019269 0.099279 -3.020363
2011-10-25 07:43:26 51°12.527 2°49.132 18.4805 0.019269 0.099279 -3.020363
2011-10-25 07:43:31 51°12.52 2°49.107 18.4792 0.019269 0.099284 -3.020363
2011-10-25 07:43:36 51°12.513 2°49.081 18.4664 0.019269 0.099286 -3.020363
2011-10-25 07:43:40 51°12.507 2°49.06 18.4858 0.019269 0.099289 -3.020363
2011-10-25 07:43:46 51°12.498 2°49.03 18.4446 0.019269 0.099289 -3.020363
2011-10-25 07:43:51 51°12.49 2°49.005 18.4773 0.019269 0.099291 -3.020363
2011-10-25 07:43:56 51°12.482 2°48.98 18.4725 0.019269 0.099293 -3.020363
2011-10-25 07:44:00 51°12.476 2°48.96 18.472 0.019269 0.099296 -3.020363
2011-10-25 07:44:06 51°12.466 2°48.93 18.4912 0.019269 0.099299 -3.020363
2011-10-25 07:44:11 51°12.459 2°48.904 18.4913 0.019269 0.099303 -3.020363
2011-10-25 07:44:16 51°12.451 2°48.879 18.4791 0.019269 0.099303 -3.020363
2011-10-25 07:44:20 51°12.444 2°48.86 18.4915 0.019269 0.099305 -3.020363
2011-10-25 07:44:26 51°12.435 2°48.83 18.4736 0.019269 0.099308 -3.020363
2011-10-25 07:44:31 51°12.427 2°48.805 18.477 0.019269 0.09931 -3.020363
2011-10-25 07:44:36 51°12.418 2°48.78 18.4644 0.019269 0.099313 -3.020363
2011-10-25 07:44:40 51°12.412 2°48.76 18.494 0.019269 0.099316 -3.020363
2011-10-25 07:44:46 51°12.402 2°48.73 18.5008 0.019269 0.099316 -3.020363
2011-10-25 07:44:51 51°12.394 2°48.706 18.4495 0.019269 0.09932 -3.020363
2011-10-25 07:44:56 51°12.385 2°48.681 18.4748 0.019269 0.099322 -3.020363
2011-10-25 07:45:00 51°12.379 2°48.661 18.4819 0.019269 0.099326 -3.020363
2011-10-25 07:45:06 51°12.369 2°48.631 18.4687 0.019269 0.099329 -3.020363
2011-10-25 07:45:11 51°12.36 2°48.607 18.4782 0.019269 0.099333 -3.020363
2011-10-25 07:45:16 51°12.352 2°48.582 18.4691 0.019269 0.099333 -3.020363
2011-10-25 07:45:21 51°12.344 2°48.557 18.4787 0.019269 0.099336 -3.020363
2011-10-25 07:45:26 51°12.335 2°48.533 18.485 0.019269 0.099339 -3.020363
2011-10-25 07:45:31 51°12.327 2°48.508 18.5001 0.019269 0.099342 -3.020363
2011-10-25 07:45:36 51°12.318 2°48.484 18.4618 0.019269 0.099346 -3.020363
2011-10-25 07:45:40 51°12.311 2°48.464 18.4914 0.019269 0.099349 -3.020363
2011-10-25 07:45:46 51°12.301 2°48.435 18.4779 0.019269 0.099349 -3.020363
2011-10-25 07:45:51 51°12.293 2°48.41 18.5018 0.019269 0.099351 -3.020363
2011-10-25 07:45:56 51°12.284 2°48.385 18.5032 0.019269 0.099356 -3.020363
2011-10-25 07:46:00 51°12.277 2°48.366 18.49 0.019269 0.099357 -3.020363
2011-10-25 07:46:06 51°12.267 2°48.337 18.5325 0.019269 0.099363 -3.020363
2011-10-25 07:46:11 51°12.257 2°48.313 18.4979 0.019269 0.099364 -3.020363
2011-10-25 07:46:16 51°12.248 2°48.289 18.5081 0.019269 0.099364 -3.020363
2011-10-25 07:46:20 51°12.24 2°48.271 18.4731 0.019269 0.099368 -3.020363
2011-10-25 07:46:26 51°12.228 2°48.243 18.499 0.019269 0.099371 -3.020363
2011-10-25 07:46:31 51°12.219 2°48.221 18.4928 0.019269 0.099376 -3.020363
2011-10-25 07:46:36 51°12.208 2°48.198 18.4933 0.019269 0.099378 -3.020363
2011-10-25 07:46:40 51°12.201 2°48.18 18.4477 0.019167 0.098868 -3.020363
2011-10-25 07:46:46 51°12.188 2°48.152 18.5032 0.019167 0.098868 -3.020363
2011-10-25 07:46:51 51°12.179 2°48.129 18.4927 0.019269 0.099384 -3.020363
2011-10-25 07:46:56 51°12.17 2°48.105 18.4728 0.019269 0.099387 -3.020363
2011-10-25 07:47:00 51°12.162 2°48.086 18.4908 0.019167 0.098875 -3.020363
2011-10-25 07:47:06 51°12.151 2°48.057 18.4758 0.019167 0.09888 -3.020363
2011-10-25 07:47:11 51°12.143 2°48.033 18.4984 0.019167 0.098884 -3.020363
2011-10-25 07:47:16 51°12.134 2°48.009 18.502 0.019167 0.098884 -3.020363
2011-10-25 07:47:21 51°12.126 2°47.984 18.4957 0.019167 0.098887 -3.020363
2011-10-25 07:47:26 51°12.117 2°47.96 18.5066 0.019167 0.09889 -3.020363
2011-10-25 07:47:31 51°12.109 2°47.935 18.5102 0.019167 0.098892 -3.020363
2011-10-25 07:47:36 51°12.101 2°47.91 18.4829 0.019167 0.098895 -3.020363
2011-10-25 07:47:40 51°12.094 2°47.891 18.5224 0.019167 0.098899 -3.020363
2011-10-25 07:47:46 51°12.084 2°47.861 18.5224 0.019167 0.098899 -3.020363
2011-10-25 07:47:51 51°12.075 2°47.837 18.5178 0.019167 0.098902 -3.020363
2011-10-25 07:47:56 51°12.066 2°47.814 18.4687 0.019167 0.098905 -3.020363
2011-10-25 07:48:00 51°12.058 2°47.795 18.507 0.019167 0.098908 -3.020363
2011-10-25 07:48:06 51°12.047 2°47.767 18.5067 0.019167 0.098911 -3.020363
2011-10-25 07:48:11 51°12.037 2°47.743 18.4743 0.019167 0.098913 -3.020363
2011-10-25 07:48:16 51°12.028 2°47.719 18.4877 0.019167 0.098913 -3.020363
2011-10-25 07:48:20 51°12.021 2°47.701 18.4688 0.019167 0.098916 -3.020363
2011-10-25 07:48:26 51°12.009 2°47.672 18.4994 0.019167 0.098919 -3.020363
2011-10-25 07:48:31 51°12 2°47.649 18.4964 0.019167 0.098922 -3.020363
2011-10-25 07:48:36 51°11.991 2°47.625 18.5052 0.019167 0.098925 -3.020363
2011-10-25 07:48:40 51°11.984 2°47.606 18.507 0.019167 0.098926 -3.020363
2011-10-25 07:48:46 51°11.973 2°47.577 18.504 0.019167 0.098926 -3.020363
2011-10-25 07:48:51 51°11.964 2°47.553 18.5101 0.019167 0.09893 -3.020363
2011-10-25 07:48:56 51°11.955 2°47.529 18.5017 0.019167 0.098933 -3.020363
2011-10-25 07:49:00 51°11.948 2°47.51 18.4962 0.019167 0.098936 -3.020363
2011-10-25 07:49:06 51°11.937 2°47.481 18.5085 0.019167 0.098937 -3.020363
2011-10-25 07:49:11 51°11.928 2°47.457 18.5035 0.019167 0.09894 -3.020363
2011-10-25 07:49:16 51°11.919 2°47.433 18.4825 0.019167 0.09894 -3.020363
2011-10-25 07:49:20 51°11.912 2°47.413 18.5222 0.019167 0.098943 -3.020363
2011-10-25 07:49:26 51°11.902 2°47.384 18.4989 0.019167 0.098946 -3.020363
2011-10-25 07:49:31 51°11.893 2°47.359 18.5206 0.019167 0.098949 -3.020363
2011-10-25 07:49:36 51°11.885 2°47.335 18.51 0.019167 0.098952 -3.020363
2011-10-25 07:49:40 51°11.878 2°47.316 18.4879 0.019167 0.098953 -3.020363
2011-10-25 07:49:46 51°11.868 2°47.286 18.5109 0.019167 0.098953 -3.020363
2011-10-25 07:49:51 51°11.86 2°47.262 18.5229 0.019167 0.098956 -3.020363
2011-10-25 07:49:56 51°11.851 2°47.237 18.5157 0.019167 0.098959 -3.020363
2011-10-25 07:50:00 51°11.844 2°47.218 18.5087 0.019167 0.098961 -3.020363
2011-10-25 07:50:06 51°11.834 2°47.189 18.4906 0.019167 0.098964 -3.020363
2011-10-25 07:50:11 51°11.825 2°47.165 18.5146 0.019167 0.098966 -3.020363
2011-10-25 07:50:16 51°11.816 2°47.141 18.5044 0.019167 0.098966 -3.020363
2011-10-25 07:50:20 51°11.809 2°47.121 18.5302 0.019167 0.098969 -3.020363
2011-10-25 07:50:25 51°11.801 2°47.097 18.4997 0.019167 0.098971 -3.020363
2011-10-25 07:50:31 51°11.79 2°47.068 18.5345 0.019167 0.098974 -3.020363
2011-10-25 07:50:36 51°11.781 2°47.044 18.5268 0.019167 0.098976 -3.020363
2011-10-25 07:50:40 51°11.775 2°47.025 18.5305 0.019167 0.098978 -3.020363
2011-10-25 07:50:46 51°11.764 2°46.995 18.531 0.019167 0.098978 -3.020363
2011-10-25 07:50:50 51°11.758 2°46.976 18.5292 0.019167 0.098981 -3.020363
2011-10-25 07:50:56 51°11.747 2°46.947 18.5162 0.019167 0.098984 -3.020363
2011-10-25 07:51:00 51°11.74 2°46.928 18.5102 0.019167 0.098985 -3.020363
2011-10-25 07:51:06 51°11.73 2°46.899 18.5403 0.019167 0.098988 -3.020363
2011-10-25 07:51:11 51°11.721 2°46.875 18.5504 0.019167 0.098991 -3.020363
2011-10-25 07:51:16 51°11.712 2°46.851 18.5327 0.019167 0.098991 -3.020363
2011-10-25 07:51:20 51°11.705 2°46.832 18.4915 0.019167 0.098993 -3.020363
2011-10-25 07:51:26 51°11.694 2°46.804 18.5443 0.019167 0.098994 -3.020363
2011-10-25 07:51:31 51°11.685 2°46.78 18.5338 0.019167 0.098998 -3.020363
2011-10-25 07:51:36 51°11.675 2°46.757 18.5503 0.019167 0.099 -3.020363
2011-10-25 07:51:40 51°11.668 2°46.738 18.5269 0.019167 0.099002 -3.020363
2011-10-25 07:51:46 51°11.656 2°46.71 18.5362 0.019167 0.099002 -3.020363
2011-10-25 07:51:51 51°11.647 2°46.687 18.5171 0.019167 0.099004 -3.020363
2011-10-25 07:51:56 51°11.637 2°46.664 18.5333 0.019167 0.099005 -3.020363
2011-10-25 07:52:01 51°11.627 2°46.641 18.5159 0.019167 0.099008 -3.020363
2011-10-25 07:52:06 51°11.618 2°46.618 18.5366 0.019167 0.09901 -3.020363
2011-10-25 07:52:11 51°11.608 2°46.595 18.5369 0.019167 0.099012 -3.020363
2011-10-25 07:52:16 51°11.599 2°46.571 18.5401 0.019167 0.099012 -3.020363
2011-10-25 07:52:20 51°11.592 2°46.552 18.4876 0.019167 0.099014 -3.020363
2011-10-25 07:52:26 51°11.581 2°46.524 18.5466 0.019167 0.099015 -3.020363
2011-10-25 07:52:31 51°11.572 2°46.5 18.5237 0.019167 0.099018 -3.020363
2011-10-25 07:52:36 51°11.563 2°46.476 18.5485 0.019167 0.099019 -3.020363
2011-10-25 07:52:40 51°11.556 2°46.457 18.5052 0.019167 0.099022 -3.020363
2011-10-25 07:52:46 51°11.546 2°46.428 18.546 0.019167 0.099022 -3.020363
2011-10-25 07:52:51 51°11.538 2°46.404 18.543 0.019167 0.099024 -3.020363
2011-10-25 07:52:56 51°11.529 2°46.38 18.5468 0.019167 0.099025 -3.020363
2011-10-25 07:53:00 51°11.523 2°46.36 18.5326 0.019167 0.099028 -3.020363
2011-10-25 07:53:06 51°11.513 2°46.331 18.5229 0.019167 0.099029 -3.020363
2011-10-25 07:53:11 51°11.504 2°46.307 18.5322 0.019167 0.099034 -3.020363
2011-10-25 07:53:16 51°11.496 2°46.283 18.5384 0.019167 0.099034 -3.020363
2011-10-25 07:53:20 51°11.489 2°46.264 18.5535 0.019167 0.099034 -3.020363
2011-10-25 07:53:26 51°11.479 2°46.235 18.5341 0.019167 0.099036 -3.020363
2011-10-25 07:53:31 51°11.471 2°46.211 18.5417 0.019167 0.099038 -3.020363
2011-10-25 07:53:36 51°11.462 2°46.187 18.569 0.019167 0.099041 -3.020363
2011-10-25 07:53:40 51°11.455 2°46.168 18.5514 0.019167 0.099043 -3.020363
2011-10-25 07:53:46 51°11.444 2°46.14 18.5639 0.019167 0.099043 -3.020363
2011-10-25 07:53:51 51°11.435 2°46.117 18.5356 0.019167 0.099045 -3.020363
2011-10-25 07:53:56 51°11.426 2°46.094 18.5664 0.019167 0.099048 -3.020363
2011-10-25 07:54:00 51°11.418 2°46.076 18.5403 0.019167 0.099049 -3.020363
2011-10-25 07:54:06 51°11.407 2°46.048 18.5599 0.019167 0.099051 -3.020363
2011-10-25 07:54:11 51°11.397 2°46.025 18.5331 0.019167 0.099052 -3.020363
2011-10-25 07:54:16 51°11.387 2°46.003 18.549 0.019167 0.099052 -3.020363
2011-10-25 07:54:20 51°11.38 2°45.984 18.5438 0.019167 0.099056 -3.020363
2011-10-25 07:54:26 51°11.369 2°45.957 18.5262 0.019167 0.099058 -3.020363
2011-10-25 07:54:31 51°11.359 2°45.934 18.5354 0.019167 0.099059 -3.020363
2011-10-25 07:54:36 51°11.35 2°45.912 18.5279 0.019167 0.09906 -3.020363
2011-10-25 07:54:40 51°11.342 2°45.893 18.5768 0.019167 0.099063 -3.020363
2011-10-25 07:54:46 51°11.331 2°45.866 18.5718 0.019167 0.099063 -3.020363
2011-10-25 07:54:51 51°11.322 2°45.843 18.5736 0.019167 0.099065 -3.020363
2011-10-25 07:54:56 51°11.311 2°45.821 18.549 0.019167 0.099068 -3.020363
2011-10-25 07:55:00 51°11.304 2°45.803 18.5543 0.019167 0.099069 -3.020363
2011-10-25 07:55:06 51°11.292 2°45.777 18.5633 0.019167 0.099073 -3.020363
2011-10-25 07:55:11 51°11.282 2°45.755 18.548 0.019167 0.099073 -3.020363
2011-10-25 07:55:16 51°11.272 2°45.733 18.5665 0.019167 0.099073 -3.020363
2011-10-25 07:55:20 51°11.264 2°45.715 18.5594 0.019167 0.099076 -3.020363
2011-10-25 07:55:26 51°11.252 2°45.689 18.5307 0.019167 0.099077 -3.020363
2011-10-25 07:55:31 51°11.242 2°45.666 18.5652 0.019167 0.09908 -3.020363
2011-10-25 07:55:36 51°11.233 2°45.645 18.5633 0.019167 0.099083 -3.020363
2011-10-25 07:55:40 51°11.225 2°45.627 18.5522 0.019167 0.099083 -3.020363
2011-10-25 07:55:46 51°11.213 2°45.6 18.5609 0.019167 0.099083 -3.020363
2011-10-25 07:55:51 51°11.204 2°45.577 18.5649 0.019167 0.099086 -3.020363
2011-10-25 07:55:56 51°11.195 2°45.555 18.5301 0.019167 0.099087 -3.020363
2011-10-25 07:56:00 51°11.188 2°45.536 18.5591 0.019167 0.099089 -3.020363
2011-10-25 07:56:06 51°11.178 2°45.508 18.5494 0.019167 0.099092 -3.020363
2011-10-25 07:56:11 51°11.169 2°45.485 18.5538 0.019167 0.099092 -3.020363
2011-10-25 07:56:16 51°11.161 2°45.461 18.5844 0.019167 0.099092 -3.020363
2011-10-25 07:56:20 51°11.155 2°45.441 18.5467 0.019167 0.099094 -3.020363
2011-10-25 07:56:26 51°11.145 2°45.413 18.5732 0.019167 0.099096 -3.020363
2011-10-25 07:56:31 51°11.138 2°45.388 18.5821 0.019167 0.099099 -3.020363
2011-10-25 07:56:36 51°11.13 2°45.365 18.5683 0.019167 0.0991 -3.020363
2011-10-25 07:56:40 51°11.123 2°45.345 18.5753 0.019167 0.099103 -3.020363
2011-10-25 07:56:46 51°11.114 2°45.317 18.5583 0.019167 0.099103 -3.020363
2011-10-25 07:56:51 51°11.105 2°45.293 18.569 0.019167 0.099104 -3.020363
2011-10-25 07:56:56 51°11.097 2°45.269 18.534 0.019167 0.099107 -3.020363
2011-10-25 07:57:00 51°11.09 2°45.251 18.5766 0.019167 0.099109 -3.020363
2011-10-25 07:57:05 51°11.083 2°45.227 18.5558 0.019167 0.099111 -3.020363
2011-10-25 07:57:11 51°11.073 2°45.198 18.5623 0.019167 0.099113 -3.020363
2011-10-25 07:57:16 51°11.064 2°45.175 18.5829 0.019167 0.099113 -3.020363
2011-10-25 07:57:20 51°11.058 2°45.156 18.537 0.019167 0.099116 -3.020363
2011-10-25 07:57:26 51°11.048 2°45.127 18.5633 0.019167 0.099116 -3.020363
2011-10-25 07:57:30 51°11.041 2°45.108 18.5432 0.019167 0.099119 -3.020363
2011-10-25 07:57:36 51°11.031 2°45.08 18.5655 0.019167 0.099121 -3.020363
2011-10-25 07:57:40 51°11.025 2°45.061 18.5626 0.019167 0.099124 -3.020363
2011-10-25 07:57:46 51°11.015 2°45.033 18.5798 0.019167 0.099124 -3.020363
2011-10-25 07:57:51 51°11.006 2°45.009 18.5791 0.019064 0.098611 -3.020363
2011-10-25 07:57:56 51°10.998 2°44.986 18.5779 0.019167 0.099129 -3.020363
2011-10-25 07:58:00 51°10.991 2°44.967 18.5896 0.019167 0.09913 -3.020363
2011-10-25 07:58:06 51°10.981 2°44.939 18.602 0.019167 0.099133 -3.020363
2011-10-25 07:58:11 51°10.973 2°44.916 18.5997 0.019064 0.098621 -3.020363
2011-10-25 07:58:16 51°10.963 2°44.894 18.6014 0.019064 0.098621 -3.020363
2011-10-25 07:58:20 51°10.956 2°44.876 18.5737 0.019064 0.098624 -3.020363
2011-10-25 07:58:26 51°10.944 2°44.85 18.5905 0.019064 0.098625 -3.020363
2011-10-25 07:58:31 51°10.934 2°44.828 18.5622 0.019064 0.098628 -3.020363
2011-10-25 07:58:36 51°10.924 2°44.807 18.5706 0.019064 0.09863 -3.020363
2011-10-25 07:58:41 51°10.915 2°44.785 18.5461 0.019064 0.098631 -3.020363
2011-10-25 07:58:46 51°10.904 2°44.764 18.5859 0.019064 0.098631 -3.020363
2011-10-25 07:58:51 51°10.895 2°44.742 18.5778 0.019064 0.098634 -3.020363
2011-10-25 07:58:56 51°10.885 2°44.721 18.5843 0.019064 0.098637 -3.020363
2011-10-25 07:59:00 51°10.877 2°44.703 18.5553 0.019064 0.098638 -3.020363
2011-10-25 07:59:06 51°10.865 2°44.678 18.5794 0.019064 0.098641 -3.020363
2011-10-25 07:59:11 51°10.856 2°44.656 18.5738 0.019064 0.098642 -3.020363
2011-10-25 07:59:16 51°10.846 2°44.634 18.5984 0.019064 0.098642 -3.020363
2011-10-25 07:59:20 51°10.839 2°44.616 18.5813 0.019064 0.098644 -3.020363
2011-10-25 07:59:25 51°10.829 2°44.595 18.5973 0.019064 0.098647 -3.020363
2011-10-25 07:59:31 51°10.817 2°44.568 18.6024 0.019064 0.098648 -3.020363
2011-10-25 07:59:36 51°10.808 2°44.547 18.5395 0.019064 0.098649 -3.020363
2011-10-25 07:59:40 51°10.8 2°44.529 18.5839 0.019064 0.098652 -3.020363
2011-10-25 07:59:46 51°10.789 2°44.503 18.5562 0.019064 0.098652 -3.020363
2011-10-25 07:59:51 51°10.78 2°44.481 18.5708 0.019064 0.098654 -3.020363
2011-10-25 07:59:56 51°10.772 2°44.457 18.5926 0.019064 0.098656 -3.020363
2011-10-25 08:00:00 51°10.765 2°44.439 18.5959 0.019064 0.098658 -3.020363
2011-10-25 08:00:06 51°10.755 2°44.411 18.5796 0.019064 0.098661 -3.020363
2011-10-25 08:00:10 51°10.749 2°44.392 18.585 0.019064 0.098662 -3.020363
2011-10-25 08:00:16 51°10.739 2°44.364 18.6033 0.019064 0.098662 -3.020363
2011-10-25 08:00:20 51°10.733 2°44.345 18.5826 0.019064 0.098665 -3.020363
2011-10-25 08:00:26 51°10.724 2°44.317 18.6 0.019064 0.098666 -3.020363
2011-10-25 08:00:31 51°10.717 2°44.293 18.6103 0.019064 0.098668 -3.020363
2011-10-25 08:00:36 51°10.709 2°44.27 18.5682 0.019064 0.098671 -3.020363
2011-10-25 08:00:40 51°10.703 2°44.251 18.6064 0.019064 0.098672 -3.020363
2011-10-25 08:00:46 51°10.693 2°44.223 18.6031 0.019064 0.098672 -3.020363
2011-10-25 08:00:51 51°10.685 2°44.2 18.5815 0.019064 0.098673 -3.020363
2011-10-25 08:00:56 51°10.677 2°44.176 18.5584 0.019064 0.098676 -3.020363
2011-10-25 08:01:00 51°10.671 2°44.158 18.6124 0.019064 0.098678 -3.020363
2011-10-25 08:01:06 51°10.662 2°44.129 18.5566 0.019064 0.098679 -3.020363
2011-10-25 08:01:11 51°10.653 2°44.106 18.6134 0.019064 0.098682 -3.020363
2011-10-25 08:01:16 51°10.646 2°44.083 18.5556 0.019064 0.098682 -3.020363
2011-10-25 08:01:20 51°10.639 2°44.064 18.6024 0.019064 0.098683 -3.020363
2011-10-25 08:01:26 51°10.629 2°44.037 18.5654 0.019064 0.098685 -3.020363
2011-10-25 08:01:31 51°10.621 2°44.013 18.5785 0.019064 0.098688 -3.020363
2011-10-25 08:01:36 51°10.613 2°43.991 18.604 0.019064 0.098689 -3.020363
2011-10-25 08:01:40 51°10.606 2°43.972 18.5743 0.019064 0.09869 -3.020363
2011-10-25 08:01:46 51°10.596 2°43.944 18.6053 0.019064 0.09869 -3.020363
2011-10-25 08:01:50 51°10.59 2°43.926 18.5859 0.019064 0.098692 -3.020363
2011-10-25 08:01:56 51°10.58 2°43.898 18.6142 0.019064 0.098695 -3.020363
2011-10-25 08:02:00 51°10.573 2°43.88 18.5973 0.019064 0.098697 -3.020363
2011-10-25 08:02:06 51°10.563 2°43.852 18.6088 0.019064 0.098697 -3.020363
2011-10-25 08:02:11 51°10.555 2°43.83 18.5946 0.019064 0.098699 -3.020363
2011-10-25 08:02:16 51°10.546 2°43.807 18.6022 0.019064 0.098699 -3.020363
2011-10-25 08:02:20 51°10.539 2°43.789 18.574 0.019064 0.098702 -3.020363
2011-10-25 08:02:26 51°10.529 2°43.762 18.6152 0.019064 0.098703 -3.020363
2011-10-25 08:02:31 51°10.52 2°43.739 18.5912 0.019064 0.098704 -3.020363
2011-10-25 08:02:36 51°10.511 2°43.717 18.6082 0.019064 0.098706 -3.020363
2011-10-25 08:02:40 51°10.504 2°43.699 18.5937 0.019064 0.098709 -3.020363
2011-10-25 08:02:46 51°10.493 2°43.673 18.5914 0.019064 0.098709 -3.020363
2011-10-25 08:02:51 51°10.484 2°43.65 18.614 0.019064 0.09871 -3.020363
2011-10-25 08:02:56 51°10.475 2°43.629 18.6147 0.019064 0.098712 -3.020363
2011-10-25 08:03:00 51°10.468 2°43.611 18.5596 0.019064 0.098713 -3.020363
2011-10-25 08:03:06 51°10.457 2°43.584 18.614 0.019064 0.098716 -3.020363
2011-10-25 08:03:11 51°10.447 2°43.563 18.6128 0.019064 0.098717 -3.020363
2011-10-25 08:03:16 51°10.438 2°43.54 18.5792 0.019064 0.098717 -3.020363
2011-10-25 08:03:20 51°10.431 2°43.523 18.6085 0.019064 0.098717 -3.020363
2011-10-25 08:03:26 51°10.42 2°43.496 18.6126 0.019064 0.09872 -3.020363
2011-10-25 08:03:31 51°10.411 2°43.474 18.5925 0.019064 0.098721 -3.020363
2011-10-25 08:03:36 51°10.402 2°43.452 18.597 0.019064 0.098721 -3.020363
2011-10-25 08:03:40 51°10.395 2°43.434 18.6312 0.019064 0.098724 -3.020363
2011-10-25 08:03:46 51°10.386 2°43.409 18.6079 0.019064 0.098724 -3.020363
2011-10-25 08:03:51 51°10.378 2°43.388 18.6223 0.019064 0.098726 -3.020363
2011-10-25 08:03:56 51°10.37 2°43.368 18.6282 0.019064 0.098727 -3.020363
2011-10-25 08:04:00 51°10.365 2°43.353 18.638 0.019064 0.09873 -3.020363
2011-10-25 08:04:06 51°10.356 2°43.331 18.6384 0.019064 0.098731 -3.020363
2011-10-25 08:04:11 51°10.35 2°43.314 18.6354 0.019064 0.098733 -3.020363
2011-10-25 08:04:16 51°10.344 2°43.297 18.65 0.019064 0.098733 -3.020363
2011-10-25 08:04:20 51°10.339 2°43.284 18.6462 0.019064 0.098734 -3.020363
2011-10-25 08:04:26 51°10.332 2°43.266 18.6626 0.019064 0.098736 -3.020363
2011-10-25 08:04:31 51°10.326 2°43.251 18.6355 0.019064 0.098737 -3.020363
2011-10-25 08:04:36 51°10.32 2°43.237 18.6635 0.019064 0.098737 -3.020363
2011-10-25 08:04:40 51°10.316 2°43.226 18.6252 0.019064 0.098738 -3.020363
2011-10-25 08:04:46 51°10.308 2°43.21 18.6658 0.019064 0.098738 -3.020363
2011-10-25 08:04:51 51°10.303 2°43.197 18.6534 0.019064 0.09874 -3.020363
2011-10-25 08:04:56 51°10.297 2°43.184 18.6527 0.019064 0.098741 -3.020363
2011-10-25 08:05:00 51°10.292 2°43.174 18.6339 0.019064 0.098743 -3.020363
2011-10-25 08:05:06 51°10.286 2°43.159 18.6507 0.019064 0.098744 -3.020363
2011-10-25 08:05:11 51°10.28 2°43.146 18.6441 0.019064 0.098746 -3.020363
2011-10-25 08:05:16 51°10.275 2°43.134 18.6637 0.019064 0.098746 -3.020363
2011-10-25 08:05:20 51°10.27 2°43.124 18.6546 0.019064 0.098747 -3.020363
2011-10-25 08:05:26 51°10.264 2°43.109 18.6445 0.019064 0.098747 -3.020363
2011-10-25 08:05:31 51°10.259 2°43.097 18.6651 0.019064 0.098748 -3.020363
2011-10-25 08:05:36 51°10.254 2°43.085 18.6332 0.019064 0.09875 -3.020363
2011-10-25 08:05:40 51°10.249 2°43.075 18.6453 0.019064 0.098751 -3.020363
2011-10-25 08:05:46 51°10.243 2°43.061 18.6577 0.019064 0.098751 -3.020363
2011-10-25 08:05:51 51°10.239 2°43.05 18.662 0.019064 0.098753 -3.020363
2011-10-25 08:05:56 51°10.234 2°43.039 18.6478 0.019064 0.098754 -3.020363
2011-10-25 08:06:00 51°10.231 2°43.031 18.6458 0.019064 0.098755 -3.020363
2011-10-25 08:06:05 51°10.227 2°43.022 18.6516 0.019064 0.098755 -3.020363
2011-10-25 08:06:11 51°10.223 2°43.01 18.6533 0.019064 0.098757 -3.020363
2011-10-25 08:06:16 51°10.219 2°43.001 18.6466 0.019064 0.098757 -3.020363
2011-10-25 08:06:20 51°10.218 2°42.994 18.6508 0.019064 0.098757 -3.020363
2011-10-25 08:06:26 51°10.215 2°42.984 18.6603 0.019064 0.098758 -3.020363
2011-10-25 08:06:31 51°10.213 2°42.976 18.6624 0.019064 0.09876 -3.020363
2011-10-25 08:06:36 51°10.212 2°42.969 18.6864 0.019064 0.098761 -3.020363
2011-10-25 08:06:40 51°10.211 2°42.962 18.6805 0.019064 0.098763 -3.020363
2011-10-25 08:06:46 51°10.209 2°42.954 18.6805 0.019064 0.098763 -3.020363
2011-10-25 08:06:51 51°10.209 2°42.946 18.6694 0.019064 0.098764 -3.020363
2011-10-25 08:06:56 51°10.208 2°42.939 18.6687 0.019064 0.098765 -3.020363
2011-10-25 08:07:00 51°10.208 2°42.934 18.689 0.019064 0.098767 -3.020363
2011-10-25 08:07:06 51°10.207 2°42.926 18.6952 0.019064 0.098767 -3.020363
2011-10-25 08:07:11 51°10.207 2°42.92 18.6974 0.019064 0.09877 -3.020363
2011-10-25 08:07:16 51°10.206 2°42.913 18.6938 0.019064 0.09877 -3.020363
2011-10-25 08:07:20 51°10.206 2°42.908 18.6686 0.019064 0.09877 -3.020363
2011-10-25 08:07:26 51°10.206 2°42.901 18.6771 0.019064 0.098772 -3.020363
2011-10-25 08:07:31 51°10.206 2°42.895 18.686 0.019064 0.098775 -3.020363
2011-10-25 08:07:36 51°10.206 2°42.889 18.6803 0.019064 0.098777 -3.020363
2011-10-25 08:07:40 51°10.206 2°42.885 18.6792 0.019064 0.098778 -3.020363
2011-10-25 08:07:46 51°10.206 2°42.878 18.6836 0.019064 0.098778 -3.020363
2011-10-25 08:07:51 51°10.206 2°42.872 18.6829 0.019064 0.09878 -3.020363
2011-10-25 08:07:56 51°10.206 2°42.867 18.6866 0.019064 0.098781 -3.020363
2011-10-25 08:08:00 51°10.206 2°42.862 18.6873 0.019064 0.098782 -3.020363
2011-10-25 08:08:06 51°10.206 2°42.856 18.6925 0.019064 0.098784 -3.020363
2011-10-25 08:08:11 51°10.206 2°42.851 18.6939 0.019064 0.098788 -3.020363
2011-10-25 08:08:16 51°10.206 2°42.846 18.6953 0.019064 0.098788 -3.020363
2011-10-25 08:08:20 51°10.206 2°42.842 18.7035 0.019064 0.098789 -3.020363
2011-10-25 08:08:25 51°10.206 2°42.837 18.6948 0.019064 0.098792 -3.020363
2011-10-25 08:08:31 51°10.205 2°42.831 18.6898 0.019064 0.098794 -3.020363
2011-10-25 08:08:36 51°10.205 2°42.827 18.7002 0.019064 0.098797 -3.020363
2011-10-25 08:08:40 51°10.205 2°42.824 18.6975 0.019064 0.098798 -3.020363
2011-10-25 08:08:46 51°10.204 2°42.82 18.7007 0.019064 0.098798 -3.020363
2011-10-25 08:08:50 51°10.204 2°42.818 18.7121 0.019064 0.098801 -3.020363
2011-10-25 08:08:56 51°10.204 2°42.815 18.6906 0.019064 0.098802 -3.020363
2011-10-25 08:09:00 51°10.204 2°42.814 18.701 0.019064 0.098804 -3.020363
2011-10-25 08:09:06 51°10.204 2°42.812 18.7181 0.019064 0.098798 -3.020363
2011-10-25 08:09:11 51°10.203 2°42.811 18.7062 0.019064 0.098799 -3.020363
2011-10-25 08:09:16 51°10.203 2°42.81 18.7268 0.019064 0.098799 -3.020363
2011-10-25 08:09:20 51°10.203 2°42.81 18.7259 0.019064 0.098804 -3.020363
2011-10-25 08:09:26 51°10.204 2°42.81 18.7141 0.019064 0.098806 -3.020363
2011-10-25 08:09:31 51°10.204 2°42.81 18.6919 0.019064 0.098811 -3.020363
2011-10-25 08:09:36 51°10.204 2°42.81 18.6923 0.019064 0.098815 -3.020363
2011-10-25 08:09:40 51°10.204 2°42.811 18.6964 0.019064 0.098818 -3.020363
2011-10-25 08:09:46 51°10.204 2°42.811 18.7113 0.019064 0.098818 -3.020363
2011-10-25 08:09:51 51°10.204 2°42.811 18.7076 0.019064 0.098821 -3.020363
2011-10-25 08:09:56 51°10.204 2°42.812 18.7084 0.019064 0.098823 -3.020363
2011-10-25 08:10:00 51°10.204 2°42.812 18.7035 0.019064 0.098826 -3.020363
2011-10-25 08:10:06 51°10.205 2°42.812 18.7129 0.019064 0.098829 -3.020363
2011-10-25 08:10:11 51°10.205 2°42.813 18.7175 0.019064 0.098832 -3.020363
2011-10-25 08:10:16 51°10.205 2°42.813 18.712 0.019064 0.098832 -3.020363
2011-10-25 08:10:20 51°10.205 2°42.813 18.7195 0.019064 0.098836 -3.020363
2011-10-25 08:10:26 51°10.206 2°42.813 18.7174 0.019064 0.098839 -3.020363
2011-10-25 08:10:31 51°10.206 2°42.814 18.7198 0.019064 0.098842 -3.020363
2011-10-25 08:10:36 51°10.206 2°42.814 18.7271 0.019064 0.098845 -3.020363
2011-10-25 08:10:40 51°10.206 2°42.814 18.7198 0.019064 0.098849 -3.020363
2011-10-25 08:10:46 51°10.207 2°42.815 18.7303 0.019064 0.098849 -3.020363
2011-10-25 08:10:51 51°10.207 2°42.815 18.6965 0.019064 0.098852 -3.020363
2011-10-25 08:10:56 51°10.207 2°42.816 18.7185 0.019064 0.098856 -3.020363
2011-10-25 08:11:00 51°10.208 2°42.816 18.7262 0.019064 0.098858 -3.020363
2011-10-25 08:11:06 51°10.208 2°42.816 18.7386 0.019064 0.098862 -3.020363
2011-10-25 08:11:11 51°10.208 2°42.817 18.7271 0.019064 0.098862 -3.020363
2011-10-25 08:11:16 51°10.209 2°42.817 18.7047 0.019064 0.098862 -3.020363
2011-10-25 08:11:20 51°10.209 2°42.817 18.7246 0.019064 0.098865 -3.020363
2011-10-25 08:11:26 51°10.209 2°42.818 18.7184 0.019064 0.098867 -3.020363
2011-10-25 08:11:31 51°10.21 2°42.818 18.716 0.019064 0.098872 -3.020363
2011-10-25 08:11:36 51°10.21 2°42.819 18.7154 0.019064 0.098876 -3.020363
2011-10-25 08:11:40 51°10.21 2°42.819 18.7279 0.019064 0.098879 -3.020363
2011-10-25 08:11:46 51°10.211 2°42.819 18.7379 0.019064 0.098879 -3.020363
2011-10-25 08:11:51 51°10.211 2°42.819 18.7429 0.019064 0.098883 -3.020363
2011-10-25 08:11:56 51°10.211 2°42.82 18.746 0.019064 0.098886 -3.020363
2011-10-25 08:12:00 51°10.211 2°42.82 18.732 0.019064 0.098889 -3.020363
2011-10-25 08:12:06 51°10.212 2°42.821 18.7271 0.019064 0.098892 -3.020363
2011-10-25 08:12:11 51°10.212 2°42.821 18.7285 0.019064 0.098896 -3.020363
2011-10-25 08:12:16 51°10.212 2°42.821 18.7277 0.019064 0.098896 -3.020363
2011-10-25 08:12:20 51°10.213 2°42.822 18.7263 0.019064 0.098899 -3.020363
2011-10-25 08:12:26 51°10.213 2°42.822 18.7309 0.019064 0.098902 -3.020363
2011-10-25 08:12:31 51°10.213 2°42.822 18.736 0.019064 0.098904 -3.020363
2011-10-25 08:12:36 51°10.214 2°42.823 18.7397 0.019064 0.098909 -3.020363
2011-10-25 08:12:40 51°10.214 2°42.823 18.7405 0.019064 0.098912 -3.020363
2011-10-25 08:12:46 51°10.215 2°42.824 18.7402 0.019064 0.098912 -3.020363
2011-10-25 08:12:51 51°10.215 2°42.824 18.7516 0.019064 0.098914 -3.020363
2011-10-25 08:12:56 51°10.215 2°42.824 18.7531 0.019064 0.098917 -3.020363
2011-10-25 08:13:00 51°10.216 2°42.825 18.7276 0.018961 0.098404 -3.020363
2011-10-25 08:13:06 51°10.216 2°42.825 18.7237 0.018961 0.098408 -3.020363
2011-10-25 08:13:11 51°10.216 2°42.826 18.7457 0.018961 0.09841 -3.020363